| time (UTC) | temp F | wind direction | speed MPH | gust MPH | rain 1hr in | rain 24hr in | rain mn in | humidity % | barometer mb |
| 20260905003515 | 61 | 270 | 5.0 | 9.0 | 0.00 | 0.24 | 0.00 | 90 | 1012.5 |
| 20260905003325 | 61 | 270 | 5.0 | 9.0 | 0.00 | 0.24 | 0.00 | 90 | 1012.5 |
| 20260905003140 | 61 | 225 | 6.0 | 9.0 | 0.00 | 0.24 | 0.00 | 90 | 1012.5 |
| 20260905002945 | 61 | 202 | 6.0 | 9.0 | 0.00 | 0.24 | 0.00 | 90 | 1012.5 |
| 20260905002743 | 61 | 270 | 5.0 | 8.0 | 0.00 | 0.24 | 0.00 | 90 | 1012.4 |
| 20260905002617 | 61 | 248 | 5.0 | 8.0 | 0.00 | 0.24 | 0.00 | 90 | 1012.5 |
| 20260905002600 | 61 | 270 | 5.0 | 8.0 | 0.00 | 0.24 | 0.00 | 90 | 1012.5 |
| 20260905002405 | 61 | 225 | 5.0 | 8.0 | 0.00 | 0.24 | 0.00 | 90 | 1012.4 |
| 20260905002230 | 61 | 248 | 5.0 | 7.0 | 0.00 | 0.24 | 0.00 | 90 | 1012.3 |
| 20260905002045 | 61 | 248 | 5.0 | 7.0 | 0.00 | 0.24 | 0.00 | 90 | 1012.4 |
| 20260905001910 | 61 | 315 | 5.0 | 7.0 | 0.00 | 0.24 | 0.00 | 90 | 1012.4 |
| 20260905001730 | 61 | 248 | 5.0 | 8.0 | 0.00 | 0.24 | 0.00 | 90 | 1012.4 |
| 20260905001530 | 61 | 270 | 5.0 | 8.0 | 0.00 | 0.24 | 0.00 | 90 | 1012.3 |
| 20260905001330 | 61 | 270 | 5.0 | 8.0 | 0.00 | 0.24 | 0.00 | 90 | 1012.3 |
| 20260905001148 | 61 | 225 | 5.0 | 7.0 | 0.00 | 0.24 | 0.00 | 90 | 1012.3 |
| 20260905001000 | 61 | 292 | 5.0 | 7.0 | 0.00 | 0.24 | 0.00 | 90 | 1012.2 |
| 20260905000800 | 61 | 292 | 5.0 | 7.0 | 0.00 | 0.24 | 0.00 | 90 | 1012.3 |
| 20260905000721 | 61 | 202 | 4.0 | 7.0 | 0.00 | 0.24 | 0.00 | 90 | 1012.3 |
| 20260905000627 | 61 | 225 | 4.0 | 7.0 | 0.00 | 0.24 | 0.00 | 90 | 1012.2 |
| 20260905000459 | 61 | 225 | 4.0 | 7.0 | 0.00 | 0.24 | 0.00 | 90 | 1012.2 |
| 20260905000318 | 61 | 248 | 4.0 | 7.0 | 0.00 | 0.24 | 0.00 | 90 | 1012.2 |
| 20260905000108 | 61 | 292 | 5.0 | 7.0 | 0.00 | 0.24 | 0.00 | 89 | 1012.3 |
| 20260904235730 | 61 | 292 | 5.0 | 7.0 | 0.00 | 0.24 | 0.00 | 89 | 1012.3 |
| 20260904235612 | 61 | 292 | 5.0 | 7.0 | 0.00 | 0.24 | 0.00 | 89 | 1012.3 |
| 20260904235150 | 61 | 292 | 5.0 | 7.0 | 0.00 | 0.24 | 0.00 | 89 | 1012.3 |
| 20260904234905 | 61 | 292 | 5.0 | 7.0 | 0.00 | 0.24 | 0.00 | 89 | 1012.3 |
| 20260904234844 | 61 | 292 | 5.0 | 7.0 | 0.00 | 0.24 | 0.00 | 89 | 1012.3 |
| 20260904234429 | 62 | 270 | 5.0 | 7.0 | 0.00 | 0.24 | 0.00 | 89 | 1012.3 |
| 20260904234230 | 62 | 270 | 5.0 | 7.0 | 0.00 | 0.24 | 0.00 | 89 | 1012.2 |
| 20260904234050 | 62 | 248 | 6.0 | 8.0 | 0.00 | 0.24 | 0.00 | 88 | 1012.2 |
| 20260904233954 | 62 | 248 | 6.0 | 8.0 | 0.00 | 0.24 | 0.00 | 88 | 1012.2 |
| 20260904233723 | 62 | 248 | 6.0 | 8.0 | 0.00 | 0.24 | 0.00 | 88 | 1012.2 |
| 20260904233532 | 62 | 270 | 6.0 | 9.0 | 0.00 | 0.24 | 0.00 | 89 | 1012.2 |
| 20260904233345 | 62 | 248 | 6.0 | 9.0 | 0.00 | 0.24 | 0.00 | 89 | 1012.2 |
| 20260904233158 | 62 | 292 | 6.0 | 11.0 | 0.00 | 0.24 | 0.00 | 88 | 1012.3 |
| 20260904233131 | 62 | 292 | 7.0 | 11.0 | 0.00 | 0.24 | 0.00 | 88 | 1012.3 |
| 20260904233005 | 62 | 292 | 7.0 | 11.0 | 0.00 | 0.24 | 0.00 | 89 | 1012.2 |
| 20260904232810 | 62 | 225 | 7.0 | 11.0 | 0.00 | 0.24 | 0.00 | 88 | 1012.1 |
| 20260904232628 | 62 | 225 | 6.0 | 10.0 | 0.00 | 0.24 | 0.00 | 89 | 1012.1 |
| 20260904232452 | 62 | 202 | 6.0 | 10.0 | 0.00 | 0.24 | 0.00 | 89 | 1012.1 |
| 20260904232309 | 62 | 248 | 6.0 | 10.0 | 0.00 | 0.24 | 0.00 | 89 | 1012.0 |
| 20260904232130 | 62 | 292 | 5.0 | 10.0 | 0.00 | 0.24 | 0.00 | 89 | 1012.1 |
| 20260904231949 | 62 | 225 | 5.0 | 8.0 | 0.00 | 0.24 | 0.00 | 88 | 1012.0 |
| 20260904231750 | 62 | 202 | 5.0 | 8.0 | 0.00 | 0.24 | 0.00 | 88 | 1012.0 |
| 20260904231605 | 62 | 270 | 5.0 | 6.0 | 0.00 | 0.24 | 0.00 | 88 | 1012.0 |
| 20260904231519 | 62 | 225 | 5.0 | 6.0 | 0.00 | 0.24 | 0.00 | 87 | 1011.9 |
| 20260904231415 | 62 | 248 | 6.0 | 7.0 | 0.00 | 0.24 | 0.00 | 87 | 1012.0 |
| 20260904231225 | 62 | 248 | 6.0 | 8.0 | 0.00 | 0.24 | 0.00 | 87 | 1012.1 |
| 20260904231045 | 62 | 248 | 6.0 | 10.0 | 0.00 | 0.24 | 0.00 | 87 | 1012.0 |
| 20260904230853 | 62 | 270 | 6.0 | 10.0 | 0.00 | 0.24 | 0.00 | 86 | 1011.9 |
| 20260904230700 | 62 | 225 | 6.0 | 10.0 | 0.00 | 0.24 | 0.00 | 86 | 1011.9 |
| 20260904230510 | 62 | 270 | 6.0 | 11.0 | 0.00 | 0.24 | 0.00 | 86 | 1012.0 |
| 20260904230322 | 62 | 248 | 6.0 | 11.0 | 0.00 | 0.24 | 0.00 | 86 | 1011.9 |
| 20260904230145 | 62 | 270 | 6.0 | 11.0 | 0.00 | 0.24 | 0.00 | 86 | 1011.7 |
| 20260904225945 | 62 | 225 | 6.0 | 10.0 | 0.00 | 0.24 | 0.00 | 86 | 1011.8 |
| 20260904225805 | 62 | 225 | 6.0 | 10.0 | 0.00 | 0.24 | 0.00 | 86 | 1011.8 |
| 20260904225615 | 62 | 158 | 7.0 | 8.0 | 0.00 | 0.24 | 0.00 | 87 | 1011.8 |
| 20260904225420 | 62 | 225 | 7.0 | 10.0 | 0.00 | 0.24 | 0.00 | 86 | 1011.7 |
| 20260904225230 | 62 | 225 | 7.0 | 11.0 | 0.00 | 0.24 | 0.00 | 87 | 1011.7 |
| 20260904225035 | 62 | 225 | 7.0 | 11.0 | 0.00 | 0.24 | 0.00 | 86 | 1011.7 |
| 20260904224850 | 62 | 292 | 7.0 | 11.0 | 0.00 | 0.24 | 0.00 | 87 | 1011.7 |
| 20260904224700 | 62 | 292 | 6.0 | 11.0 | 0.00 | 0.24 | 0.00 | 88 | 1011.7 |
| 20260904224505 | 62 | 225 | 6.0 | 10.0 | 0.00 | 0.24 | 0.00 | 89 | 1011.7 |
| 20260904224306 | 62 | 248 | 6.0 | 10.0 | 0.00 | 0.24 | 0.00 | 89 | 1011.7 |
| 20260904224202 | 62 | 225 | 6.0 | 10.0 | 0.00 | 0.24 | 0.00 | 89 | 1011.7 |
| 20260904224118 | 62 | 292 | 6.0 | 10.0 | 0.00 | 0.24 | 0.00 | 89 | 1011.7 |
| 20260904223940 | 62 | 248 | 6.0 | 9.0 | 0.00 | 0.24 | 0.00 | 90 | 1011.7 |
| 20260904223746 | 62 | 292 | 6.0 | 9.0 | 0.00 | 0.24 | 0.00 | 90 | 1011.7 |
| 20260904223610 | 62 | 270 | 6.0 | 9.0 | 0.00 | 0.24 | 0.00 | 90 | 1011.7 |
| 20260904223420 | 62 | 270 | 6.0 | 9.0 | 0.00 | 0.24 | 0.00 | 90 | 1011.7 |
| 20260904223240 | 62 | 248 | 6.0 | 10.0 | 0.00 | 0.24 | 0.00 | 90 | 1011.7 |
| 20260904223040 | 62 | 248 | 6.0 | 10.0 | 0.00 | 0.24 | 0.00 | 90 | 1011.6 |
| 20260904222848 | 62 | 248 | 6.0 | 10.0 | 0.00 | 0.24 | 0.00 | 90 | 1011.5 |
| 20260904222704 | 62 | 248 | 6.0 | 9.0 | 0.00 | 0.24 | 0.00 | 90 | 1011.5 |
| 20260904222537 | 62 | 248 | 6.0 | 9.0 | 0.00 | 0.24 | 0.00 | 90 | 1011.5 |
| 20260904222505 | 62 | 225 | 6.0 | 7.0 | 0.00 | 0.24 | 0.00 | 90 | 1011.4 |
| 20260904222325 | 62 | 248 | 5.0 | 9.0 | 0.00 | 0.24 | 0.00 | 90 | 1011.4 |
| 20260904222134 | 62 | 248 | 5.0 | 9.0 | 0.00 | 0.24 | 0.00 | 90 | 1011.5 |
| 20260904221934 | 62 | 270 | 6.0 | 9.0 | 0.00 | 0.24 | 0.00 | 90 | 1011.3 |
| 20260904221753 | 62 | 248 | 6.0 | 7.0 | 0.00 | 0.24 | 0.00 | 90 | 1011.3 |
| 20260904221614 | 62 | 248 | 6.0 | 8.0 | 0.00 | 0.24 | 0.00 | 90 | 1011.3 |
| 20260904221415 | 62 | 225 | 6.0 | 10.0 | 0.00 | 0.24 | 0.00 | 89 | 1011.2 |
| 20260904221215 | 62 | 225 | 6.0 | 10.0 | 0.00 | 0.24 | 0.00 | 89 | 1011.1 |
| 20260904221030 | 62 | 225 | 6.0 | 10.0 | 0.00 | 0.24 | 0.00 | 89 | 1011.0 |
| 20260904220835 | 62 | 248 | 6.0 | 11.0 | 0.00 | 0.24 | 0.00 | 89 | 1011.0 |
| 20260904220737 | 62 | 248 | 6.0 | 11.0 | 0.00 | 0.24 | 0.00 | 89 | 1010.9 |
| 20260904220639 | 62 | 248 | 6.0 | 11.0 | 0.00 | 0.24 | 0.00 | 89 | 1010.9 |
| 20260904220440 | 62 | 248 | 5.0 | 9.0 | 0.00 | 0.24 | 0.00 | 90 | 1010.8 |
| 20260904220255 | 62 | 202 | 6.0 | 11.0 | 0.00 | 0.24 | 0.00 | 90 | 1010.8 |
| 20260904220110 | 62 | 225 | 6.0 | 9.0 | 0.00 | 0.24 | 0.00 | 90 | 1010.8 |
| 20260904215913 | 62 | 270 | 6.0 | 10.0 | 0.00 | 0.24 | 0.24 | 90 | 1010.8 |
| 20260904215725 | 62 | 270 | 6.0 | 12.0 | 0.00 | 0.24 | 0.24 | 90 | 1010.8 |
| 20260904215540 | 62 | 202 | 6.0 | 12.0 | 0.00 | 0.24 | 0.24 | 90 | 1010.7 |
| 20260904215400 | 62 | 225 | 7.0 | 12.0 | 0.00 | 0.24 | 0.24 | 90 | 1010.8 |
| 20260904215220 | 62 | 248 | 7.0 | 11.0 | 0.00 | 0.24 | 0.24 | 91 | 1010.7 |
| 20260904215102 | 62 | 248 | 7.0 | 11.0 | 0.00 | 0.24 | 0.24 | 91 | 1010.6 |
| 20260904215030 | 62 | 248 | 7.0 | 11.0 | 0.00 | 0.24 | 0.24 | 91 | 1010.5 |
| 20260904214840 | 62 | 248 | 7.0 | 11.0 | 0.00 | 0.24 | 0.24 | 90 | 1010.6 |
| 20260904214645 | 62 | 270 | 7.0 | 11.0 | 0.00 | 0.24 | 0.24 | 91 | 1010.6 |
| 20260904214450 | 62 | 248 | 7.0 | 11.0 | 0.00 | 0.24 | 0.24 | 91 | 1010.5 |
| 20260904214305 | 62 | 202 | 6.0 | 10.0 | 0.00 | 0.24 | 0.24 | 91 | 1010.4 |
| 20260904214110 | 62 | 248 | 6.0 | 10.0 | 0.00 | 0.24 | 0.24 | 91 | 1010.3 |
| 20260904213920 | 62 | 202 | 7.0 | 10.0 | 0.00 | 0.24 | 0.24 | 91 | 1010.3 |
| 20260904213724 | 62 | 292 | 7.0 | 10.0 | 0.00 | 0.24 | 0.24 | 91 | 1010.2 |
| 20260904213535 | 62 | 225 | 7.0 | 10.0 | 0.00 | 0.24 | 0.24 | 91 | 1010.2 |
| 20260904213443 | 62 | 270 | 7.0 | 11.0 | 0.00 | 0.24 | 0.24 | 91 | 1010.2 |
| 20260904213350 | 62 | 292 | 7.0 | 11.0 | 0.00 | 0.24 | 0.24 | 91 | 1010.2 |
| 20260904213155 | 62 | 248 | 7.0 | 11.0 | 0.00 | 0.24 | 0.24 | 91 | 1010.2 |
| 20260904213002 | 62 | 225 | 7.0 | 11.0 | 0.00 | 0.24 | 0.24 | 91 | 1010.2 |
| 20260904212815 | 62 | 225 | 7.0 | 11.0 | 0.00 | 0.24 | 0.24 | 91 | 1010.2 |
| 20260904212635 | 62 | 248 | 6.0 | 9.0 | 0.00 | 0.24 | 0.24 | 91 | 1010.3 |
| 20260904212439 | 62 | 248 | 6.0 | 11.0 | 0.00 | 0.24 | 0.24 | 91 | 1010.1 |
| 20260904212254 | 62 | 248 | 6.0 | 11.0 | 0.00 | 0.24 | 0.24 | 91 | 1010.1 |
| 20260904212105 | 62 | 248 | 6.0 | 11.0 | 0.00 | 0.24 | 0.24 | 91 | 1010.1 |
| 20260904211917 | 62 | 292 | 6.0 | 11.0 | 0.00 | 0.24 | 0.24 | 92 | 1010.1 |
| 20260904211847 | 62 | 270 | 6.0 | 10.0 | 0.00 | 0.24 | 0.24 | 92 | 1010.2 |
| 20260904211742 | 62 | 225 | 6.0 | 10.0 | 0.00 | 0.24 | 0.24 | 91 | 1010.0 |
| 20260904211605 | 62 | 225 | 7.0 | 10.0 | 0.00 | 0.24 | 0.24 | 91 | 1010.1 |
| 20260904211420 | 62 | 225 | 7.0 | 10.0 | 0.00 | 0.24 | 0.24 | 91 | 1010.1 |
| 20260904211235 | 62 | 248 | 7.0 | 10.0 | 0.00 | 0.24 | 0.24 | 92 | 1009.9 |
| 20260904211042 | 62 | 248 | 7.0 | 10.0 | 0.00 | 0.24 | 0.24 | 92 | 1009.9 |
| 20260904210905 | 62 | 248 | 7.0 | 11.0 | 0.00 | 0.24 | 0.24 | 92 | 1009.9 |
| 20260904210705 | 62 | 248 | 7.0 | 11.0 | 0.00 | 0.24 | 0.24 | 92 | 1009.9 |
| 20260904210505 | 62 | 202 | 6.0 | 11.0 | 0.00 | 0.24 | 0.24 | 93 | 1009.9 |
| 20260904210310 | 62 | 225 | 6.0 | 8.0 | 0.00 | 0.24 | 0.24 | 93 | 1009.9 |
| 20260904210217 | 62 | 248 | 6.0 | 8.0 | 0.00 | 0.24 | 0.24 | 93 | 1009.9 |
| 20260904210130 | 62 | 270 | 6.0 | 8.0 | 0.00 | 0.24 | 0.24 | 93 | 1009.9 |
| 20260904205930 | 62 | 225 | 6.0 | 10.0 | 0.00 | 0.24 | 0.24 | 93 | 1009.9 |
| 20260904205742 | 62 | 270 | 6.0 | 10.0 | 0.00 | 0.24 | 0.24 | 94 | 1009.9 |
| 20260904205600 | 62 | 225 | 6.0 | 10.0 | 0.00 | 0.24 | 0.24 | 94 | 1009.8 |
| 20260904205410 | 62 | 270 | 6.0 | 10.0 | 0.00 | 0.24 | 0.24 | 94 | 1009.8 |
| 20260904205230 | 62 | 225 | 6.0 | 11.0 | 0.00 | 0.24 | 0.24 | 94 | 1009.8 |
| 20260904205050 | 62 | 248 | 6.0 | 11.0 | 0.00 | 0.24 | 0.24 | 94 | 1009.7 |
| 20260904204910 | 62 | 202 | 6.0 | 11.0 | 0.00 | 0.24 | 0.24 | 94 | 1009.6 |
| 20260904204730 | 62 | 270 | 6.0 | 11.0 | 0.00 | 0.24 | 0.24 | 94 | 1009.6 |
| 20260904204637 | 62 | 270 | 6.0 | 11.0 | 0.00 | 0.24 | 0.24 | 94 | 1009.6 |
| 20260904204530 | 62 | 270 | 6.0 | 8.0 | 0.00 | 0.24 | 0.24 | 94 | 1009.6 |
| 20260904204340 | 62 | 225 | 6.0 | 11.0 | 0.00 | 0.24 | 0.24 | 94 | 1009.5 |
| 20260904204200 | 62 | 248 | 6.0 | 11.0 | 0.00 | 0.24 | 0.24 | 94 | 1009.6 |
| 20260904204020 | 62 | 248 | 6.0 | 11.0 | 0.00 | 0.24 | 0.24 | 94 | 1009.6 |
| 20260904203820 | 62 | 180 | 6.0 | 9.0 | 0.00 | 0.24 | 0.24 | 94 | 1009.5 |
| 20260904203622 | 62 | 248 | 6.0 | 10.0 | 0.00 | 0.24 | 0.24 | 94 | 1009.4 |
| 20260904203440 | 62 | 292 | 6.0 | 10.0 | 0.00 | 0.24 | 0.24 | 95 | 1009.4 |
| 20260904203300 | 62 | 225 | 5.0 | 8.0 | 0.00 | 0.24 | 0.24 | 95 | 1009.3 |
| 20260904203110 | 62 | 248 | 5.0 | 8.0 | 0.00 | 0.24 | 0.24 | 95 | 1009.4 |
| 20260904202910 | 62 | 270 | 6.0 | 8.0 | 0.00 | 0.24 | 0.24 | 95 | 1009.3 |
| 20260904202720 | 62 | 248 | 6.0 | 8.0 | 0.00 | 0.24 | 0.24 | 95 | 1009.3 |
| 20260904202520 | 62 | 270 | 6.0 | 9.0 | 0.00 | 0.24 | 0.24 | 95 | 1009.3 |
| 20260904202330 | 62 | 248 | 6.0 | 9.0 | 0.00 | 0.24 | 0.24 | 95 | 1009.3 |
| 20260904202137 | 62 | 270 | 6.0 | 9.0 | 0.00 | 0.24 | 0.24 | 95 | 1009.1 |
| 20260904202023 | 62 | 292 | 6.0 | 9.0 | 0.00 | 0.24 | 0.24 | 95 | 1009.1 |
| 20260904201810 | 62 | 248 | 6.0 | 9.0 | 0.00 | 0.24 | 0.24 | 95 | 1009.1 |
| 20260904201622 | 62 | 248 | 6.0 | 9.0 | 0.00 | 0.24 | 0.24 | 95 | 1009.1 |
| 20260904201445 | 62 | 292 | 6.0 | 10.0 | 0.00 | 0.24 | 0.24 | 94 | 1009.2 |
| 20260904201302 | 62 | 248 | 6.0 | 10.0 | 0.00 | 0.24 | 0.24 | 94 | 1009.2 |
| 20260904201205 | 62 | 248 | 6.0 | 10.0 | 0.00 | 0.24 | 0.24 | 94 | 1009.2 |
| 20260904201105 | 62 | 292 | 6.0 | 10.0 | 0.00 | 0.24 | 0.24 | 94 | 1009.2 |
| 20260904200915 | 62 | 292 | 6.0 | 10.0 | 0.00 | 0.24 | 0.24 | 94 | 1009.2 |
| 20260904200739 | 62 | 225 | 5.0 | 9.0 | 0.00 | 0.24 | 0.24 | 95 | 1009.3 |
| 20260904200550 | 62 | 225 | 5.0 | 9.0 | 0.00 | 0.24 | 0.24 | 95 | 1009.2 |
| 20260904200410 | 62 | 248 | 5.0 | 9.0 | 0.00 | 0.24 | 0.24 | 94 | 1009.2 |
| 20260904200229 | 62 | 225 | 6.0 | 9.0 | 0.00 | 0.24 | 0.24 | 94 | 1009.2 |
| 20260904200050 | 62 | 292 | 6.0 | 8.0 | 0.00 | 0.24 | 0.24 | 94 | 1009.2 |
| 20260904195902 | 62 | 270 | 6.0 | 10.0 | 0.00 | 0.24 | 0.24 | 94 | 1009.1 |
| 20260904195720 | 62 | 292 | 6.0 | 10.0 | 0.00 | 0.24 | 0.24 | 94 | 1009.0 |
| 20260904195520 | 62 | 248 | 6.0 | 10.0 | 0.00 | 0.24 | 0.24 | 94 | 1009.1 |
| 20260904195346 | 62 | 225 | 6.0 | 11.0 | 0.00 | 0.24 | 0.24 | 94 | 1009.2 |
| 20260904195320 | 62 | 225 | 6.0 | 11.0 | 0.00 | 0.24 | 0.24 | 94 | 1009.2 |
| 20260904195140 | 62 | 270 | 6.0 | 11.0 | 0.00 | 0.24 | 0.24 | 94 | 1009.1 |
| 20260904194942 | 62 | 225 | 6.0 | 10.0 | 0.00 | 0.24 | 0.24 | 94 | 1009.2 |
| 20260904194755 | 62 | 248 | 7.0 | 10.0 | 0.00 | 0.24 | 0.24 | 94 | 1009.1 |
| 20260904194610 | 62 | 270 | 6.0 | 10.0 | 0.00 | 0.24 | 0.24 | 94 | 1009.1 |
| 20260904194430 | 62 | 248 | 6.0 | 10.0 | 0.00 | 0.24 | 0.24 | 94 | 1009.1 |
| 20260904194235 | 62 | 270 | 6.0 | 10.0 | 0.00 | 0.24 | 0.24 | 94 | 1009.1 |
| 20260904194040 | 62 | 225 | 6.0 | 10.0 | 0.00 | 0.24 | 0.24 | 94 | 1009.1 |
| 20260904193900 | 62 | 270 | 6.0 | 9.0 | 0.00 | 0.24 | 0.24 | 94 | 1009.1 |
| 20260904193715 | 62 | 270 | 6.0 | 10.0 | 0.00 | 0.24 | 0.24 | 94 | 1009.1 |
| 20260904193549 | 62 | 270 | 6.0 | 10.0 | 0.00 | 0.24 | 0.24 | 94 | 1009.1 |
| 20260904193517 | 62 | 248 | 6.0 | 10.0 | 0.00 | 0.24 | 0.24 | 94 | 1009.1 |
| 20260904193320 | 62 | 225 | 6.0 | 10.0 | 0.00 | 0.24 | 0.24 | 94 | 1009.2 |
| 20260904193140 | 62 | 270 | 6.0 | 10.0 | 0.00 | 0.24 | 0.24 | 94 | 1009.1 |
| 20260904192942 | 62 | 225 | 6.0 | 10.0 | 0.00 | 0.24 | 0.24 | 94 | 1009.1 |
| 20260904192750 | 62 | 292 | 6.0 | 10.0 | 0.00 | 0.24 | 0.24 | 94 | 1009.1 |
| 20260904192605 | 62 | 248 | 6.0 | 10.0 | 0.00 | 0.24 | 0.24 | 94 | 1009.1 |
| 20260904192410 | 62 | 292 | 6.0 | 10.0 | 0.00 | 0.24 | 0.24 | 94 | 1009.0 |
| 20260904192215 | 62 | 202 | 6.0 | 10.0 | 0.00 | 0.24 | 0.24 | 94 | 1009.1 |
| 20260904192020 | 62 | 248 | 6.0 | 10.0 | 0.00 | 0.24 | 0.24 | 94 | 1009.1 |
| 20260904191948 | 62 | 248 | 6.0 | 10.0 | 0.00 | 0.24 | 0.24 | 94 | 1009.0 |
| 20260904191830 | 62 | 248 | 6.0 | 9.0 | 0.00 | 0.24 | 0.24 | 94 | 1009.0 |
| 20260904191635 | 62 | 270 | 6.0 | 9.0 | 0.00 | 0.24 | 0.24 | 94 | 1009.0 |
| 20260904191451 | 62 | 270 | 6.0 | 11.0 | 0.00 | 0.24 | 0.24 | 94 | 1008.9 |
| 20260904191302 | 62 | 270 | 6.0 | 11.0 | 0.00 | 0.24 | 0.24 | 94 | 1009.0 |
| 20260904191109 | 62 | 225 | 6.0 | 11.0 | 0.00 | 0.24 | 0.24 | 94 | 1008.9 |
| 20260904190920 | 62 | 292 | 6.0 | 11.0 | 0.00 | 0.24 | 0.24 | 94 | 1009.0 |
| 20260904190729 | 62 | 225 | 6.0 | 10.0 | 0.00 | 0.24 | 0.24 | 94 | 1009.0 |
| 20260904190550 | 62 | 248 | 7.0 | 15.0 | 0.00 | 0.24 | 0.24 | 94 | 1008.9 |
| 20260904190405 | 62 | 292 | 7.0 | 15.0 | 0.00 | 0.24 | 0.24 | 94 | 1008.9 |
| 20260904190307 | 62 | 270 | 8.0 | 15.0 | 0.00 | 0.24 | 0.24 | 94 | 1008.8 |
| 20260904190222 | 62 | 225 | 8.0 | 15.0 | 0.00 | 0.24 | 0.24 | 94 | 1008.9 |
| 20260904190044 | 62 | 248 | 8.0 | 13.0 | 0.00 | 0.24 | 0.24 | 94 | 1008.8 |
| 20260904185844 | 62 | 202 | 7.0 | 13.0 | 0.00 | 0.24 | 0.24 | 94 | 1008.8 |
| 20260904185658 | 62 | 248 | 7.0 | 13.0 | 0.00 | 0.24 | 0.24 | 94 | 1008.9 |
| 20260904185515 | 62 | 270 | 7.0 | 11.0 | 0.00 | 0.24 | 0.24 | 94 | 1008.9 |
| 20260904185325 | 62 | 270 | 7.0 | 11.0 | 0.00 | 0.24 | 0.24 | 94 | 1009.0 |
| 20260904185137 | 62 | 225 | 7.0 | 9.0 | 0.00 | 0.24 | 0.24 | 94 | 1009.0 |
| 20260904185002 | 62 | 248 | 7.0 | 9.0 | 0.00 | 0.24 | 0.24 | 94 | 1009.0 |
| 20260904184810 | 62 | 225 | 7.0 | 12.0 | 0.00 | 0.24 | 0.24 | 94 | 1008.9 |
| 20260904184630 | 62 | 202 | 7.0 | 12.0 | 0.00 | 0.24 | 0.24 | 94 | 1008.9 |
| 20260904184455 | 62 | 248 | 7.0 | 12.0 | 0.00 | 0.24 | 0.24 | 94 | 1008.9 |
| 20260904184310 | 62 | 248 | 7.0 | 11.0 | 0.00 | 0.24 | 0.24 | 94 | 1008.9 |
| 20260904184125 | 62 | 248 | 7.0 | 11.0 | 0.00 | 0.24 | 0.24 | 94 | 1008.8 |
| 20260904183934 | 62 | 248 | 7.0 | 11.0 | 0.02 | 0.24 | 0.24 | 94 | 1008.8 |
| 20260904183752 | 62 | 225 | 7.0 | 11.0 | 0.02 | 0.24 | 0.24 | 94 | 1008.7 |
| 20260904183605 | 62 | 248 | 7.0 | 11.0 | 0.02 | 0.24 | 0.24 | 94 | 1008.6 |
| 20260904183422 | 62 | 270 | 6.0 | 10.0 | 0.03 | 0.24 | 0.24 | 94 | 1008.5 |
| 20260904183230 | 62 | 225 | 6.0 | 10.0 | 0.03 | 0.24 | 0.24 | 94 | 1008.4 |
| 20260904183044 | 62 | 202 | 7.0 | 11.0 | 0.03 | 0.24 | 0.24 | 94 | 1008.4 |
| 20260904182949 | 62 | 225 | 7.0 | 11.0 | 0.03 | 0.24 | 0.24 | 94 | 1008.4 |
| 20260904182905 | 62 | 292 | 6.0 | 11.0 | 0.05 | 0.24 | 0.24 | 94 | 1008.3 |
| 20260904182719 | 62 | 202 | 6.0 | 11.0 | 0.05 | 0.24 | 0.24 | 94 | 1008.3 |
| 20260904182522 | 62 | 202 | 7.0 | 10.0 | 0.05 | 0.24 | 0.24 | 94 | 1008.1 |
| 20260904182330 | 62 | 225 | 7.0 | 10.0 | 0.05 | 0.24 | 0.24 | 94 | 1008.1 |
| 20260904182130 | 62 | 270 | 7.0 | 10.0 | 0.05 | 0.24 | 0.24 | 94 | 1008.3 |
| 20260904181950 | 62 | 225 | 7.0 | 10.0 | 0.05 | 0.24 | 0.24 | 93 | 1008.2 |
| 20260904181805 | 62 | 270 | 8.0 | 10.0 | 0.06 | 0.24 | 0.24 | 93 | 1008.2 |
| 20260904181627 | 62 | 225 | 9.0 | 15.0 | 0.06 | 0.24 | 0.24 | 93 | 1008.3 |
| 20260904181450 | 62 | 248 | 9.0 | 15.0 | 0.06 | 0.24 | 0.24 | 93 | 1008.4 |
| 20260904181257 | 62 | 248 | 9.0 | 14.0 | 0.06 | 0.24 | 0.24 | 93 | 1008.4 |
| 20260904181130 | 62 | 202 | 9.0 | 14.0 | 0.06 | 0.24 | 0.24 | 93 | 1008.3 |
| 20260904180955 | 62 | 270 | 9.0 | 14.0 | 0.06 | 0.24 | 0.24 | 93 | 1008.4 |
| 20260904180815 | 62 | 270 | 8.0 | 14.0 | 0.06 | 0.24 | 0.24 | 93 | 1008.4 |
| 20260904180638 | 62 | 225 | 9.0 | 13.0 | 0.06 | 0.24 | 0.24 | 93 | 1008.3 |
| 20260904180450 | 62 | 248 | 9.0 | 13.0 | 0.06 | 0.24 | 0.24 | 93 | 1008.2 |
| 20260904180300 | 62 | 202 | 9.0 | 13.0 | 0.06 | 0.24 | 0.24 | 93 | 1008.2 |
| 20260904180115 | 62 | 248 | 9.0 | 13.0 | 0.06 | 0.24 | 0.24 | 93 | 1008.3 |
| 20260904175915 | 62 | 292 | 9.0 | 14.0 | 0.06 | 0.24 | 0.24 | 92 | 1008.4 |
| 20260904175725 | 62 | 202 | 9.0 | 14.0 | 0.06 | 0.24 | 0.24 | 92 | 1008.6 |
| 20260904175525 | 63 | 248 | 9.0 | 14.0 | 0.06 | 0.24 | 0.24 | 92 | 1008.6 |
| 20260904175412 | 63 | 270 | 8.0 | 14.0 | 0.06 | 0.24 | 0.24 | 92 | 1008.6 |
| 20260904175330 | 63 | 270 | 8.0 | 13.0 | 0.06 | 0.24 | 0.24 | 93 | 1008.6 |
| 20260904175150 | 63 | 248 | 8.0 | 13.0 | 0.06 | 0.24 | 0.24 | 93 | 1008.5 |
| 20260904174947 | 63 | 270 | 8.0 | 17.0 | 0.06 | 0.24 | 0.24 | 93 | 1008.5 |
| 20260904174810 | 63 | 202 | 8.0 | 17.0 | 0.06 | 0.24 | 0.24 | 93 | 1008.3 |
| 20260904174615 | 63 | 248 | 8.0 | 17.0 | 0.06 | 0.24 | 0.24 | 93 | 1008.1 |
| 20260904174430 | 63 | 225 | 7.0 | 10.0 | 0.06 | 0.24 | 0.24 | 94 | 1008.0 |
| 20260904174250 | 63 | 248 | 7.0 | 11.0 | 0.06 | 0.24 | 0.24 | 94 | 1008.1 |
| 20260904174105 | 63 | 270 | 7.0 | 11.0 | 0.06 | 0.24 | 0.24 | 93 | 1008.0 |
| 20260904173924 | 64 | 225 | 7.0 | 11.0 | 0.06 | 0.24 | 0.24 | 93 | 1007.2 |
| 20260904173735 | 64 | 292 | 8.0 | 11.0 | 0.06 | 0.24 | 0.24 | 93 | 1007.0 |
| 20260904173537 | 64 | 225 | 8.0 | 11.0 | 0.06 | 0.24 | 0.24 | 93 | 1007.4 |
| 20260904173345 | 64 | 225 | 8.0 | 10.0 | 0.05 | 0.22 | 0.22 | 93 | 1007.7 |
| 20260904173155 | 64 | 292 | 8.0 | 15.0 | 0.05 | 0.22 | 0.22 | 93 | 1007.6 |
| 20260904173000 | 64 | 202 | 8.0 | 15.0 | 0.05 | 0.22 | 0.22 | 92 | 1007.3 |
| 20260904172815 | 64 | 248 | 8.0 | 15.0 | 0.03 | 0.20 | 0.20 | 92 | 1007.4 |
| 20260904172630 | 64 | 248 | 8.0 | 11.0 | 0.03 | 0.20 | 0.20 | 92 | 1007.5 |
| 20260904172430 | 64 | 248 | 8.0 | 13.0 | 0.03 | 0.20 | 0.20 | 92 | 1007.5 |
| 20260904172244 | 65 | 248 | 8.0 | 13.0 | 0.02 | 0.19 | 0.19 | 92 | 1007.7 |
| 20260904172037 | 65 | 225 | 8.0 | 13.0 | 0.02 | 0.19 | 0.19 | 91 | 1007.5 |
| 20260904170230 | 65 | 248 | 7.0 | 13.0 | 0.00 | 0.17 | 0.17 | 90 | 1007.6 |
| 20260904170104 | 65 | 202 | 6.0 | 9.0 | 0.02 | 0.17 | 0.17 | 90 | 1007.6 |
| 20260904165923 | 65 | 248 | 7.0 | 10.0 | 0.02 | 0.17 | 0.17 | 90 | 1007.6 |
| 20260904165745 | 65 | 225 | 7.0 | 10.0 | 0.02 | 0.17 | 0.17 | 90 | 1007.8 |
| 20260904165604 | 65 | 202 | 7.0 | 10.0 | 0.02 | 0.17 | 0.17 | 90 | 1007.6 |
| 20260904165425 | 65 | 202 | 7.0 | 10.0 | 0.02 | 0.17 | 0.17 | 90 | 1007.6 |
| 20260904165242 | 65 | 248 | 7.0 | 10.0 | 0.02 | 0.17 | 0.17 | 90 | 1007.6 |
| 20260904165035 | 65 | 270 | 8.0 | 11.0 | 0.02 | 0.17 | 0.17 | 90 | 1007.5 |
| 20260904164917 | 65 | 270 | 8.0 | 11.0 | 0.02 | 0.17 | 0.17 | 90 | 1007.5 |
| 20260904164707 | 65 | 270 | 8.0 | 11.0 | 0.02 | 0.17 | 0.17 | 90 | 1007.5 |
| 20260904164647 | 65 | 248 | 8.0 | 11.0 | 0.02 | 0.17 | 0.17 | 90 | 1007.5 |
| 20260904164520 | 65 | 248 | 8.0 | 11.0 | 0.02 | 0.17 | 0.17 | 90 | 1007.4 |
| 20260904164330 | 65 | 292 | 7.0 | 11.0 | 0.02 | 0.17 | 0.17 | 91 | 1007.4 |
| 20260904164132 | 65 | 225 | 7.0 | 11.0 | 0.02 | 0.17 | 0.17 | 91 | 1007.6 |
| 20260904163955 | 65 | 248 | 7.0 | 12.0 | 0.02 | 0.17 | 0.17 | 91 | 1007.6 |
| 20260904163812 | 65 | 225 | 7.0 | 12.0 | 0.03 | 0.17 | 0.17 | 92 | 1007.7 |
| 20260904163630 | 66 | 248 | 7.0 | 12.0 | 0.03 | 0.17 | 0.17 | 92 | 1007.7 |
| 20260904163450 | 66 | 202 | 7.0 | 12.0 | 0.03 | 0.17 | 0.17 | 92 | 1007.7 |
| 20260904163315 | 66 | 225 | 7.0 | 11.0 | 0.03 | 0.17 | 0.17 | 92 | 1007.6 |
| 20260904163125 | 66 | 248 | 8.0 | 15.0 | 0.03 | 0.17 | 0.17 | 92 | 1007.7 |
| 20260904162944 | 66 | 292 | 8.0 | 15.0 | 0.03 | 0.17 | 0.17 | 92 | 1007.9 |
| 20260904162814 | 66 | 248 | 8.0 | 15.0 | 0.03 | 0.17 | 0.17 | 92 | 1007.8 |
| 20260904162754 | 66 | 202 | 8.0 | 15.0 | 0.03 | 0.17 | 0.17 | 92 | 1007.7 |
| 20260904162605 | 66 | 225 | 8.0 | 11.0 | 0.03 | 0.17 | 0.17 | 92 | 1007.8 |
| 20260904162425 | 66 | 292 | 7.0 | 16.0 | 0.03 | 0.17 | 0.17 | 93 | 1007.8 |
| 20260904162230 | 66 | 248 | 8.0 | 16.0 | 0.05 | 0.17 | 0.17 | 92 | 1008.0 |
| 20260904162045 | 66 | 225 | 8.0 | 16.0 | 0.05 | 0.17 | 0.17 | 92 | 1007.9 |
| 20260904161846 | 66 | 225 | 8.0 | 11.0 | 0.05 | 0.17 | 0.17 | 93 | 1007.9 |
| 20260904161656 | 66 | 225 | 8.0 | 15.0 | 0.05 | 0.17 | 0.17 | 93 | 1007.8 |
| 20260904161508 | 66 | 270 | 8.0 | 15.0 | 0.05 | 0.17 | 0.17 | 93 | 1007.9 |
| 20260904161314 | 66 | 248 | 8.0 | 15.0 | 0.05 | 0.17 | 0.17 | 93 | 1007.8 |
| 20260904161135 | 66 | 248 | 8.0 | 13.0 | 0.05 | 0.17 | 0.17 | 93 | 1007.7 |
| 20260904160935 | 66 | 248 | 8.0 | 13.0 | 0.05 | 0.17 | 0.17 | 93 | 1007.6 |
| 20260904160745 | 66 | 248 | 8.0 | 9.0 | 0.05 | 0.17 | 0.17 | 94 | 1007.6 |
| 20260904160605 | 66 | 225 | 8.0 | 15.0 | 0.05 | 0.17 | 0.17 | 94 | 1007.4 |
| 20260904160405 | 66 | 248 | 7.0 | 15.0 | 0.05 | 0.17 | 0.17 | 94 | 1007.4 |
| 20260904160205 | 67 | 292 | 7.0 | 15.0 | 0.05 | 0.17 | 0.17 | 94 | 1007.4 |
| 20260904160020 | 67 | 225 | 6.0 | 12.0 | 0.05 | 0.17 | 0.17 | 94 | 1007.3 |
| 20260904155830 | 67 | 202 | 6.0 | 8.0 | 0.05 | 0.17 | 0.17 | 95 | 1007.3 |
| 20260904155651 | 67 | 202 | 6.0 | 8.0 | 0.05 | 0.17 | 0.17 | 94 | 1007.2 |
| 20260904155500 | 67 | 202 | 6.0 | 10.0 | 0.03 | 0.16 | 0.16 | 94 | 1007.2 |
| 20260904155359 | 67 | 292 | 7.0 | 10.0 | 0.03 | 0.16 | 0.16 | 94 | 1007.2 |
| 20260904155300 | 67 | 180 | 7.0 | 10.0 | 0.03 | 0.16 | 0.16 | 94 | 1007.3 |
| 20260904155100 | 67 | 248 | 7.0 | 10.0 | 0.03 | 0.16 | 0.16 | 94 | 1007.3 |
| 20260904154900 | 67 | 202 | 8.0 | 15.0 | 0.03 | 0.16 | 0.16 | 94 | 1007.5 |
| 20260904154720 | 67 | 225 | 8.0 | 15.0 | 0.03 | 0.16 | 0.16 | 94 | 1007.5 |
| 20260904154526 | 67 | 248 | 8.0 | 15.0 | 0.03 | 0.16 | 0.16 | 94 | 1007.4 |
| 20260904154330 | 67 | 225 | 7.0 | 13.0 | 0.03 | 0.16 | 0.16 | 94 | 1007.5 |
| 20260904154150 | 67 | 248 | 7.0 | 13.0 | 0.03 | 0.16 | 0.16 | 95 | 1007.4 |
| 20260904153955 | 67 | 270 | 7.0 | 12.0 | 0.03 | 0.16 | 0.16 | 95 | 1007.3 |
| 20260904153805 | 67 | 225 | 7.0 | 12.0 | 0.03 | 0.16 | 0.16 | 95 | 1007.3 |
| 20260904153628 | 67 | 248 | 7.0 | 11.0 | 0.03 | 0.16 | 0.16 | 95 | 1007.3 |
| 20260904153445 | 67 | 248 | 7.0 | 13.0 | 0.03 | 0.16 | 0.16 | 95 | 1007.3 |
| 20260904153250 | 67 | 202 | 7.0 | 13.0 | 0.11 | 0.14 | 0.14 | 95 | 1007.3 |
| 20260904153109 | 67 | 225 | 7.0 | 13.0 | 0.11 | 0.14 | 0.14 | 95 | 1007.2 |
| 20260904152925 | 67 | 248 | 7.0 | 10.0 | 0.11 | 0.14 | 0.14 | 94 | 1007.2 |
| 20260904152737 | 67 | 292 | 7.0 | 10.0 | 0.14 | 0.14 | 0.14 | 95 | 1007.1 |
| 20260904152555 | 67 | 270 | 7.0 | 10.0 | 0.14 | 0.14 | 0.14 | 95 | 1007.0 |
| 20260904152403 | 67 | 270 | 7.0 | 17.0 | 0.14 | 0.14 | 0.14 | 94 | 1007.2 |
| 20260904152225 | 67 | 225 | 7.0 | 17.0 | 0.14 | 0.14 | 0.14 | 94 | 1007.1 |
| 20260904152045 | 67 | 270 | 7.0 | 17.0 | 0.14 | 0.14 | 0.14 | 94 | 1006.9 |
| 20260904151854 | 67 | 248 | 8.0 | 17.0 | 0.14 | 0.14 | 0.14 | 94 | 1007.1 |
| 20260904151655 | 68 | 292 | 7.0 | 11.0 | 0.13 | 0.13 | 0.13 | 94 | 1007.4 |
| 20260904151513 | 68 | 225 | 8.0 | 11.0 | 0.13 | 0.13 | 0.13 | 94 | 1007.4 |
| 20260904151325 | 68 | 225 | 7.0 | 15.0 | 0.13 | 0.13 | 0.13 | 94 | 1007.4 |
| 20260904151135 | 68 | 248 | 7.0 | 15.0 | 0.13 | 0.13 | 0.13 | 95 | 1007.2 |
| 20260904150955 | 68 | 248 | 7.0 | 15.0 | 0.13 | 0.13 | 0.13 | 95 | 1007.0 |
| 20260904150810 | 68 | 292 | 7.0 | 10.0 | 0.13 | 0.13 | 0.13 | 95 | 1007.0 |
| 20260904150630 | 68 | 292 | 7.0 | 10.0 | 0.13 | 0.13 | 0.13 | 94 | 1006.9 |
| 20260904150440 | 68 | 292 | 7.0 | 11.0 | 0.13 | 0.13 | 0.13 | 95 | 1006.9 |
| 20260904150247 | 68 | 248 | 8.0 | 14.0 | 0.13 | 0.13 | 0.13 | 94 | 1006.8 |
| 20260904150218 | 68 | 270 | 8.0 | 14.0 | 0.13 | 0.13 | 0.13 | 94 | 1006.8 |
| 20260904150105 | 68 | 248 | 8.0 | 14.0 | 0.13 | 0.13 | 0.13 | 94 | 1006.7 |
| 20260904145915 | 68 | 248 | 8.0 | 11.0 | 0.13 | 0.13 | 0.13 | 95 | 1006.7 |
| 20260904145736 | 68 | 248 | 8.0 | 11.0 | 0.13 | 0.13 | 0.13 | 95 | 1006.7 |
| 20260904145540 | 68 | 292 | 8.0 | 15.0 | 0.13 | 0.13 | 0.13 | 95 | 1006.8 |
| 20260904145341 | 68 | 270 | 8.0 | 15.0 | 0.13 | 0.13 | 0.13 | 95 | 1006.8 |
| 20260904145145 | 68 | 270 | 8.0 | 15.0 | 0.13 | 0.13 | 0.13 | 95 | 1006.7 |
| 20260904144950 | 68 | 315 | 9.0 | 15.0 | 0.13 | 0.13 | 0.13 | 95 | 1006.8 |
| 20260904144804 | 68 | 270 | 9.0 | 11.0 | 0.13 | 0.13 | 0.13 | 95 | 1006.7 |
| 20260904144610 | 68 | 292 | 9.0 | 16.0 | 0.13 | 0.13 | 0.13 | 95 | 1006.7 |
| 20260904144526 | 68 | 248 | 9.0 | 16.0 | 0.13 | 0.13 | 0.13 | 95 | 1006.7 |
| 20260904144410 | 68 | 248 | 9.0 | 16.0 | 0.13 | 0.13 | 0.13 | 95 | 1006.8 |
| 20260904144225 | 68 | 248 | 9.0 | 16.0 | 0.13 | 0.13 | 0.13 | 95 | 1006.7 |
| 20260904144040 | 68 | 270 | 9.0 | 11.0 | 0.13 | 0.13 | 0.13 | 95 | 1006.7 |
| 20260904143845 | 69 | 292 | 9.0 | 11.0 | 0.13 | 0.13 | 0.13 | 95 | 1006.6 |
| 20260904143655 | 69 | 270 | 9.0 | 12.0 | 0.13 | 0.13 | 0.13 | 95 | 1006.9 |
| 20260904143513 | 70 | 270 | 9.0 | 14.0 | 0.13 | 0.13 | 0.13 | 95 | 1006.8 |
| 20260904143315 | 71 | 292 | 9.0 | 19.0 | 0.13 | 0.13 | 0.13 | 94 | 1006.6 |
| 20260904143135 | 72 | 292 | 10.0 | 19.0 | 0.13 | 0.13 | 0.13 | 94 | 1006.7 |
| 20260904142944 | 74 | 248 | 10.0 | 16.0 | 0.03 | 0.03 | 0.03 | 90 | 1006.7 |
| 20260904142745 | 74 | 292 | 10.0 | 16.0 | 0.03 | 0.03 | 0.03 | 87 | 1006.7 |
| 20260904142733 | 74 | 292 | 10.0 | 16.0 | 0.03 | 0.03 | 0.03 | 87 | 1006.6 |
| 20260904142553 | 75 | 248 | 11.0 | 15.0 | 0.03 | 0.03 | 0.03 | 81 | 1006.3 |
| 20260904142405 | 76 | 248 | 11.0 | 19.0 | 0.00 | 0.00 | 0.00 | 79 | 1005.8 |
| 20260904142220 | 76 | 248 | 12.0 | 19.0 | 0.00 | 0.00 | 0.00 | 77 | 1005.6 |
| 20260904142040 | 77 | 248 | 11.0 | 19.0 | 0.00 | 0.00 | 0.00 | 72 | 1005.3 |
| 20260904141840 | 77 | 248 | 12.0 | 19.0 | 0.00 | 0.00 | 0.00 | 70 | 1005.2 |
| 20260904141700 | 77 | 292 | 12.0 | 18.0 | 0.00 | 0.00 | 0.00 | 69 | 1005.3 |
| 20260904141520 | 78 | 292 | 12.0 | 15.0 | 0.00 | 0.00 | 0.00 | 68 | 1005.4 |
| 20260904141325 | 78 | 292 | 12.0 | 21.0 | 0.00 | 0.00 | 0.00 | 65 | 1005.2 |
| 20260904141130 | 78 | 225 | 12.0 | 21.0 | 0.00 | 0.00 | 0.00 | 63 | 1005.1 |
| 20260904141023 | 78 | 270 | 12.0 | 21.0 | 0.00 | 0.00 | 0.00 | 63 | 1005.1 |
| 20260904140940 | 78 | 225 | 13.0 | 21.0 | 0.00 | 0.00 | 0.00 | 63 | 1005.2 |
| 20260904140747 | 78 | 292 | 12.0 | 21.0 | 0.00 | 0.00 | 0.00 | 62 | 1005.0 |
| 20260904140604 | 78 | 270 | 11.0 | 24.0 | 0.00 | 0.00 | 0.00 | 62 | 1005.0 |
| 20260904140420 | 79 | 248 | 11.0 | 24.0 | 0.00 | 0.00 | 0.00 | 62 | 1005.0 |
| 20260904140239 | 79 | 180 | 10.0 | 24.0 | 0.00 | 0.00 | 0.00 | 62 | 1004.9 |
| 20260904140040 | 79 | 158 | 10.0 | 23.0 | 0.00 | 0.00 | 0.00 | 63 | 1004.8 |
| 20260904135845 | 79 | 180 | 11.0 | 23.0 | 0.00 | 0.00 | 0.00 | 62 | 1004.8 |
| 20260904135650 | 79 | 225 | 12.0 | 23.0 | 0.00 | 0.00 | 0.00 | 62 | 1004.9 |
| 20260904135455 | 79 | 180 | 12.0 | 23.0 | 0.00 | 0.00 | 0.00 | 62 | 1004.8 |
| 20260904135310 | 78 | 225 | 12.0 | 23.0 | 0.00 | 0.00 | 0.00 | 62 | 1004.9 |
| 20260904135218 | 78 | 248 | 12.0 | 28.0 | 0.00 | 0.00 | 0.00 | 62 | 1005.0 |
| 20260904135110 | 78 | 248 | 12.0 | 28.0 | 0.00 | 0.00 | 0.00 | 62 | 1005.1 |
| 20260904134915 | 78 | 248 | 12.0 | 28.0 | 0.00 | 0.00 | 0.00 | 62 | 1004.9 |
| 20260904134720 | 78 | 202 | 11.0 | 23.0 | 0.00 | 0.00 | 0.00 | 62 | 1005.0 |
| 20260904134540 | 78 | 225 | 10.0 | 18.0 | 0.00 | 0.00 | 0.00 | 62 | 1005.1 |
| 20260904134353 | 78 | 225 | 11.0 | 18.0 | 0.00 | 0.00 | 0.00 | 63 | 1005.0 |
| 20260904134205 | 78 | 202 | 11.0 | 16.0 | 0.00 | 0.00 | 0.00 | 63 | 1005.1 |
| 20260904134020 | 78 | 248 | 10.0 | 19.0 | 0.00 | 0.00 | 0.00 | 64 | 1005.2 |
| 20260904133835 | 78 | 225 | 11.0 | 20.0 | 0.00 | 0.00 | 0.00 | 64 | 1005.3 |
| 20260904133700 | 78 | 202 | 11.0 | 20.0 | 0.00 | 0.00 | 0.00 | 64 | 1005.4 |
| 20260904133505 | 78 | 270 | 11.0 | 20.0 | 0.00 | 0.00 | 0.00 | 64 | 1005.3 |
| 20260904133319 | 78 | 270 | 11.0 | 20.0 | 0.00 | 0.00 | 0.00 | 63 | 1005.6 |
| 20260904133120 | 78 | 225 | 10.0 | 17.0 | 0.00 | 0.00 | 0.00 | 64 | 1005.6 |
| 20260904132935 | 78 | 270 | 10.0 | 17.0 | 0.00 | 0.00 | 0.00 | 64 | 1005.6 |
| 20260904132750 | 78 | 225 | 10.0 | 17.0 | 0.00 | 0.00 | 0.00 | 64 | 1005.5 |
| 20260904132550 | 78 | 225 | 10.0 | 17.0 | 0.00 | 0.00 | 0.00 | 65 | 1005.5 |
| 20260904132355 | 77 | 225 | 10.0 | 17.0 | 0.00 | 0.00 | 0.00 | 65 | 1005.5 |
| 20260904132158 | 77 | 180 | 11.0 | 17.0 | 0.00 | 0.00 | 0.00 | 65 | 1005.5 |
| 20260904132005 | 77 | 158 | 10.0 | 17.0 | 0.00 | 0.00 | 0.00 | 64 | 1005.5 |
| 20260904131902 | 77 | 292 | 10.0 | 17.0 | 0.00 | 0.00 | 0.00 | 65 | 1005.5 |
| 20260904131825 | 77 | 270 | 10.0 | 17.0 | 0.00 | 0.00 | 0.00 | 65 | 1005.5 |
| 20260904131700 | 77 | 270 | 11.0 | 17.0 | 0.00 | 0.00 | 0.00 | 65 | 1005.6 |
| 20260904131505 | 77 | 180 | 11.0 | 19.0 | 0.00 | 0.00 | 0.00 | 65 | 1005.5 |
| 20260904131305 | 77 | 225 | 10.0 | 19.0 | 0.00 | 0.00 | 0.00 | 66 | 1005.6 |
| 20260904131120 | 77 | 270 | 10.0 | 19.0 | 0.00 | 0.00 | 0.00 | 66 | 1005.6 |
| 20260904130939 | 77 | 202 | 11.0 | 17.0 | 0.00 | 0.00 | 0.00 | 66 | 1005.7 |
| 20260904130740 | 77 | 202 | 10.0 | 17.0 | 0.00 | 0.00 | 0.00 | 66 | 1005.7 |
| 20260904130545 | 77 | 225 | 10.0 | 17.0 | 0.00 | 0.00 | 0.00 | 66 | 1005.8 |
| 20260904130405 | 76 | 225 | 10.0 | 18.0 | 0.00 | 0.00 | 0.00 | 66 | 1005.9 |
| 20260904130230 | 76 | 270 | 9.0 | 18.0 | 0.00 | 0.00 | 0.00 | 66 | 1005.6 |
| 20260904130153 | 76 | 248 | 9.0 | 17.0 | 0.00 | 0.00 | 0.00 | 67 | 1005.9 |
| 20260904130035 | 76 | 248 | 9.0 | 17.0 | 0.00 | 0.00 | 0.00 | 66 | 1005.9 |
| 20260904125845 | 76 | 225 | 9.0 | 17.0 | 0.00 | 0.00 | 0.00 | 66 | 1005.9 |
| 20260904125655 | 76 | 225 | 8.0 | 12.0 | 0.00 | 0.00 | 0.00 | 66 | 1005.9 |
| 20260904125505 | 76 | 225 | 8.0 | 12.0 | 0.00 | 0.00 | 0.00 | 67 | 1006.0 |
| 20260904125317 | 76 | 225 | 8.0 | 12.0 | 0.00 | 0.00 | 0.00 | 67 | 1006.0 |
| 20260904125115 | 76 | 225 | 9.0 | 18.0 | 0.00 | 0.00 | 0.00 | 67 | 1006.0 |
| 20260904124935 | 76 | 202 | 9.0 | 18.0 | 0.00 | 0.00 | 0.00 | 67 | 1006.0 |
| 20260904124745 | 76 | 248 | 9.0 | 18.0 | 0.00 | 0.00 | 0.00 | 67 | 1005.9 |
| 20260904124600 | 76 | 248 | 9.0 | 18.0 | 0.00 | 0.00 | 0.00 | 67 | 1006.1 |
| 20260904124503 | 76 | 248 | 9.0 | 18.0 | 0.00 | 0.00 | 0.00 | 67 | 1006.1 |
| 20260904124410 | 76 | 225 | 9.0 | 18.0 | 0.00 | 0.00 | 0.00 | 66 | 1006.0 |
| 20260904124220 | 76 | 225 | 9.0 | 18.0 | 0.00 | 0.00 | 0.00 | 66 | 1006.0 |
| 20260904124029 | 76 | 248 | 9.0 | 18.0 | 0.00 | 0.00 | 0.00 | 67 | 1006.2 |
| 20260904123845 | 76 | 202 | 9.0 | 18.0 | 0.00 | 0.00 | 0.00 | 67 | 1006.2 |
| 20260904123653 | 76 | 225 | 9.0 | 18.0 | 0.00 | 0.00 | 0.00 | 67 | 1006.2 |
| 20260904123455 | 76 | 202 | 8.0 | 18.0 | 0.00 | 0.00 | 0.00 | 67 | 1006.4 |
| 20260904123300 | 75 | 270 | 7.0 | 18.0 | 0.00 | 0.00 | 0.00 | 67 | 1006.3 |
| 20260904123119 | 75 | 248 | 7.0 | 18.0 | 0.00 | 0.00 | 0.00 | 68 | 1006.2 |
| 20260904122940 | 75 | 225 | 7.0 | 18.0 | 0.00 | 0.00 | 0.00 | 68 | 1006.3 |
| 20260904122744 | 75 | 225 | 8.0 | 18.0 | 0.00 | 0.00 | 0.00 | 69 | 1006.4 |
| 20260904122545 | 75 | 202 | 8.0 | 18.0 | 0.00 | 0.00 | 0.00 | 69 | 1006.4 |
| 20260904122405 | 75 | 270 | 8.0 | 18.0 | 0.00 | 0.00 | 0.00 | 68 | 1006.5 |
| 20260904122220 | 75 | 225 | 8.0 | 18.0 | 0.00 | 0.00 | 0.00 | 68 | 1006.4 |
| 20260904122024 | 75 | 225 | 8.0 | 18.0 | 0.00 | 0.00 | 0.00 | 69 | 1006.5 |
| 20260904121840 | 75 | 225 | 8.0 | 18.0 | 0.00 | 0.00 | 0.00 | 68 | 1006.6 |
| 20260904121700 | 75 | 225 | 8.0 | 18.0 | 0.00 | 0.00 | 0.00 | 68 | 1006.7 |
| 20260904121505 | 75 | 270 | 8.0 | 11.0 | 0.00 | 0.00 | 0.00 | 68 | 1006.7 |
| 20260904121305 | 75 | 248 | 8.0 | 15.0 | 0.00 | 0.00 | 0.00 | 68 | 1006.7 |
| 20260904121110 | 75 | 248 | 8.0 | 15.0 | 0.00 | 0.00 | 0.00 | 68 | 1006.6 |
| 20260904121021 | 75 | 202 | 8.0 | 15.0 | 0.00 | 0.00 | 0.00 | 68 | 1006.6 |
| 20260904120712 | 75 | 248 | 8.0 | 12.0 | 0.00 | 0.00 | 0.00 | 68 | 1006.6 |
| 20260904120520 | 75 | 225 | 8.0 | 11.0 | 0.00 | 0.00 | 0.00 | 68 | 1006.6 |
| 20260904120330 | 75 | 270 | 9.0 | 13.0 | 0.00 | 0.00 | 0.00 | 68 | 1006.7 |
| 20260904120150 | 75 | 248 | 9.0 | 15.0 | 0.00 | 0.00 | 0.00 | 67 | 1006.6 |
| 20260904120000 | 75 | 225 | 9.0 | 20.0 | 0.00 | 0.00 | 0.00 | 68 | 1006.7 |
| 20260904115810 | 75 | 248 | 9.0 | 20.0 | 0.00 | 0.00 | 0.00 | 68 | 1006.7 |
| 20260904115610 | 75 | 225 | 8.0 | 20.0 | 0.00 | 0.00 | 0.00 | 67 | 1006.8 |
| 20260904115430 | 75 | 225 | 8.0 | 13.0 | 0.00 | 0.00 | 0.00 | 68 | 1006.8 |
| 20260904115324 | 75 | 270 | 8.0 | 13.0 | 0.00 | 0.00 | 0.00 | 68 | 1006.8 |
| 20260904115240 | 75 | 248 | 8.0 | 13.0 | 0.00 | 0.00 | 0.00 | 68 | 1006.8 |
| 20260904115100 | 75 | 225 | 8.0 | 13.0 | 0.00 | 0.00 | 0.00 | 68 | 1006.8 |
| 20260904114905 | 75 | 225 | 8.0 | 13.0 | 0.00 | 0.00 | 0.00 | 68 | 1006.9 |
| 20260904114705 | 75 | 225 | 9.0 | 13.0 | 0.00 | 0.00 | 0.00 | 68 | 1006.8 |
| 20260904114510 | 75 | 248 | 8.0 | 13.0 | 0.00 | 0.00 | 0.00 | 68 | 1006.9 |
| 20260904114312 | 75 | 225 | 9.0 | 13.0 | 0.00 | 0.00 | 0.00 | 68 | 1006.9 |
| 20260904114115 | 75 | 248 | 8.0 | 14.0 | 0.00 | 0.00 | 0.00 | 68 | 1007.0 |
| 20260904113920 | 75 | 202 | 8.0 | 14.0 | 0.00 | 0.00 | 0.00 | 68 | 1007.1 |
| 20260904113740 | 75 | 248 | 7.0 | 14.0 | 0.00 | 0.00 | 0.00 | 68 | 1007.2 |
| 20260904113542 | 75 | 225 | 7.0 | 11.0 | 0.00 | 0.00 | 0.00 | 69 | 1007.2 |
| 20260904113350 | 75 | 270 | 7.0 | 11.0 | 0.00 | 0.00 | 0.00 | 68 | 1007.2 |
| 20260904113205 | 74 | 270 | 8.0 | 11.0 | 0.00 | 0.00 | 0.00 | 69 | 1007.2 |
| 20260904113005 | 74 | 202 | 8.0 | 12.0 | 0.00 | 0.00 | 0.00 | 69 | 1007.3 |
| 20260904112830 | 74 | 202 | 8.0 | 15.0 | 0.00 | 0.00 | 0.00 | 69 | 1007.4 |
| 20260904112650 | 74 | 315 | 8.0 | 15.0 | 0.00 | 0.00 | 0.00 | 69 | 1007.5 |
| 20260904112451 | 74 | 180 | 8.0 | 15.0 | 0.00 | 0.00 | 0.00 | 70 | 1007.5 |
| 20260904112255 | 74 | 248 | 7.0 | 10.0 | 0.00 | 0.00 | 0.00 | 71 | 1007.4 |
| 20260904112105 | 74 | 248 | 7.0 | 10.0 | 0.00 | 0.00 | 0.00 | 70 | 1007.6 |
| 20260904111925 | 74 | 248 | 7.0 | 10.0 | 0.00 | 0.00 | 0.00 | 71 | 1007.6 |
| 20260904111745 | 74 | 292 | 7.0 | 11.0 | 0.00 | 0.00 | 0.00 | 71 | 1007.7 |
| 20260904111718 | 74 | 202 | 7.0 | 11.0 | 0.00 | 0.00 | 0.00 | 71 | 1007.7 |
| 20260904111545 | 74 | 202 | 8.0 | 11.0 | 0.00 | 0.00 | 0.00 | 71 | 1007.7 |
| 20260904111345 | 74 | 248 | 9.0 | 11.0 | 0.00 | 0.00 | 0.00 | 70 | 1007.7 |
| 20260904111202 | 74 | 270 | 8.0 | 11.0 | 0.00 | 0.00 | 0.00 | 71 | 1007.8 |
| 20260904111003 | 74 | 248 | 8.0 | 16.0 | 0.00 | 0.00 | 0.00 | 71 | 1007.8 |
| 20260904110805 | 74 | 292 | 9.0 | 17.0 | 0.00 | 0.00 | 0.00 | 70 | 1007.7 |
| 20260904110620 | 74 | 270 | 8.0 | 17.0 | 0.00 | 0.00 | 0.00 | 71 | 1007.8 |
| 20260904110440 | 74 | 225 | 8.0 | 11.0 | 0.00 | 0.00 | 0.00 | 72 | 1007.9 |
| 20260904110240 | 74 | 202 | 8.0 | 11.0 | 0.00 | 0.00 | 0.00 | 72 | 1007.9 |
| 20260904110105 | 74 | 202 | 8.0 | 13.0 | 0.00 | 0.00 | 0.00 | 72 | 1007.9 |
| 20260904105910 | 74 | 225 | 9.0 | 13.0 | 0.00 | 0.00 | 0.00 | 72 | 1008.1 |
| 20260904105720 | 74 | 180 | 8.0 | 17.0 | 0.00 | 0.00 | 0.00 | 72 | 1008.2 |
| 20260904105524 | 74 | 248 | 8.0 | 17.0 | 0.00 | 0.00 | 0.00 | 72 | 1008.1 |
| 20260904105340 | 74 | 202 | 8.0 | 17.0 | 0.00 | 0.00 | 0.00 | 72 | 1008.2 |
| 20260904105200 | 74 | 292 | 8.0 | 13.0 | 0.00 | 0.00 | 0.00 | 72 | 1008.2 |
| 20260904105004 | 74 | 292 | 9.0 | 16.0 | 0.00 | 0.00 | 0.00 | 73 | 1008.2 |
| 20260904104811 | 74 | 248 | 8.0 | 16.0 | 0.00 | 0.00 | 0.00 | 74 | 1008.2 |
| 20260904104630 | 74 | 225 | 9.0 | 16.0 | 0.00 | 0.00 | 0.00 | 74 | 1008.2 |
| 20260904104435 | 74 | 225 | 9.0 | 16.0 | 0.00 | 0.00 | 0.00 | 74 | 1008.3 |
| 20260904104240 | 74 | 202 | 9.0 | 15.0 | 0.00 | 0.00 | 0.00 | 73 | 1008.3 |
| 20260904104059 | 74 | 225 | 9.0 | 14.0 | 0.00 | 0.00 | 0.00 | 73 | 1008.4 |
| 20260904103859 | 74 | 270 | 8.0 | 15.0 | 0.00 | 0.00 | 0.00 | 73 | 1008.3 |
| 20260904103705 | 74 | 225 | 8.0 | 15.0 | 0.00 | 0.00 | 0.00 | 71 | 1008.3 |
| 20260904103520 | 74 | 270 | 8.0 | 15.0 | 0.00 | 0.00 | 0.00 | 71 | 1008.4 |
| 20260904103325 | 74 | 270 | 8.0 | 10.0 | 0.00 | 0.00 | 0.00 | 71 | 1008.3 |
| 20260904103122 | 74 | 225 | 8.0 | 10.0 | 0.00 | 0.00 | 0.00 | 71 | 1008.4 |
| 20260904102935 | 74 | 248 | 8.0 | 11.0 | 0.00 | 0.00 | 0.00 | 71 | 1008.4 |
| 20260904102738 | 74 | 248 | 8.0 | 11.0 | 0.00 | 0.00 | 0.00 | 71 | 1008.4 |
| 20260904102600 | 74 | 202 | 8.0 | 11.0 | 0.00 | 0.00 | 0.00 | 71 | 1008.5 |
| 20260904102410 | 74 | 225 | 9.0 | 16.0 | 0.00 | 0.00 | 0.00 | 71 | 1008.5 |
| 20260904102404 | 74 | 202 | 9.0 | 16.0 | 0.00 | 0.00 | 0.00 | 71 | 1008.4 |
| 20260904102210 | 74 | 202 | 9.0 | 16.0 | 0.00 | 0.00 | 0.00 | 72 | 1008.6 |
| 20260904102010 | 74 | 248 | 9.0 | 17.0 | 0.00 | 0.00 | 0.00 | 72 | 1008.7 |
| 20260904101820 | 73 | 225 | 8.0 | 17.0 | 0.00 | 0.00 | 0.00 | 72 | 1008.6 |
| 20260904101640 | 73 | 248 | 8.0 | 17.0 | 0.00 | 0.00 | 0.00 | 72 | 1008.7 |
| 20260904101440 | 73 | 202 | 8.0 | 16.0 | 0.00 | 0.00 | 0.00 | 73 | 1008.8 |
| 20260904101255 | 73 | 180 | 8.0 | 11.0 | 0.00 | 0.00 | 0.00 | 73 | 1008.8 |
| 20260904101105 | 73 | 158 | 8.0 | 11.0 | 0.00 | 0.00 | 0.00 | 74 | 1008.9 |
| 20260904100905 | 73 | 270 | 8.0 | 17.0 | 0.00 | 0.00 | 0.00 | 75 | 1009.1 |
| 20260904100710 | 73 | 292 | 8.0 | 17.0 | 0.00 | 0.00 | 0.00 | 74 | 1009.1 |
| 20260904100549 | 73 | 225 | 8.0 | 17.0 | 0.00 | 0.00 | 0.00 | 74 | 1009.1 |
| 20260904100510 | 73 | 225 | 8.0 | 17.0 | 0.00 | 0.00 | 0.00 | 74 | 1009.1 |
| 20260904100325 | 73 | 225 | 8.0 | 11.0 | 0.00 | 0.00 | 0.00 | 74 | 1009.2 |
| 20260904100125 | 73 | 248 | 8.0 | 13.0 | 0.00 | 0.00 | 0.00 | 74 | 1009.1 |
| 20260904095925 | 73 | 248 | 8.0 | 15.0 | 0.00 | 0.00 | 0.00 | 74 | 1009.2 |
| 20260904095730 | 73 | 248 | 7.0 | 15.0 | 0.00 | 0.00 | 0.00 | 74 | 1009.3 |
| 20260904095545 | 72 | 180 | 7.0 | 15.0 | 0.00 | 0.00 | 0.00 | 75 | 1009.3 |
| 20260904095352 | 72 | 225 | 7.0 | 11.0 | 0.00 | 0.00 | 0.00 | 75 | 1009.1 |
| 20260904095211 | 72 | 225 | 7.0 | 11.0 | 0.00 | 0.00 | 0.00 | 75 | 1009.2 |
| 20260904095016 | 72 | 202 | 7.0 | 11.0 | 0.00 | 0.00 | 0.00 | 76 | 1009.2 |
| 20260904094845 | 72 | 248 | 7.0 | 11.0 | 0.00 | 0.00 | 0.00 | 76 | 1009.2 |
| 20260904094654 | 72 | 202 | 7.0 | 12.0 | 0.00 | 0.00 | 0.00 | 75 | 1009.2 |
| 20260904094508 | 72 | 225 | 7.0 | 12.0 | 0.00 | 0.00 | 0.00 | 76 | 1009.2 |
| 20260904094320 | 72 | 135 | 7.0 | 12.0 | 0.00 | 0.00 | 0.00 | 76 | 1009.2 |
| 20260904094120 | 72 | 202 | 7.0 | 11.0 | 0.00 | 0.00 | 0.00 | 76 | 1009.2 |
| 20260904093935 | 72 | 225 | 7.0 | 11.0 | 0.00 | 0.00 | 0.00 | 76 | 1009.2 |
| 20260904093746 | 72 | 202 | 6.0 | 11.0 | 0.00 | 0.00 | 0.00 | 76 | 1009.3 |
| 20260904093600 | 72 | 202 | 6.0 | 11.0 | 0.00 | 0.00 | 0.00 | 76 | 1009.2 |
| 20260904093503 | 72 | 248 | 6.0 | 11.0 | 0.00 | 0.00 | 0.00 | 76 | 1009.2 |
| 20260904093424 | 72 | 202 | 6.0 | 11.0 | 0.00 | 0.00 | 0.00 | 76 | 1009.2 |
| 20260904093306 | 72 | 202 | 6.0 | 11.0 | 0.00 | 0.00 | 0.00 | 76 | 1009.1 |
| 20260904092914 | 72 | 225 | 6.0 | 11.0 | 0.00 | 0.00 | 0.00 | 76 | 1009.5 |
| 20260904092554 | 72 | 248 | 7.0 | 11.0 | 0.00 | 0.00 | 0.00 | 77 | 1009.4 |
| 20260904092355 | 72 | 225 | 7.0 | 12.0 | 0.00 | 0.00 | 0.00 | 77 | 1009.6 |
| 20260904092202 | 72 | 225 | 7.0 | 12.0 | 0.00 | 0.00 | 0.00 | 77 | 1009.6 |
| 20260904092010 | 72 | 225 | 7.0 | 12.0 | 0.00 | 0.00 | 0.00 | 77 | 1009.6 |
| 20260904091708 | 72 | 225 | 7.0 | 12.0 | 0.00 | 0.00 | 0.00 | 77 | 1009.6 |
| 20260904091635 | 72 | 225 | 7.0 | 12.0 | 0.00 | 0.00 | 0.00 | 77 | 1009.6 |
| 20260904091453 | 72 | 225 | 7.0 | 12.0 | 0.00 | 0.00 | 0.00 | 77 | 1009.6 |
| 20260904091304 | 72 | 225 | 6.0 | 13.0 | 0.00 | 0.00 | 0.00 | 77 | 1009.8 |
| 20260904091059 | 72 | 225 | 6.0 | 13.0 | 0.00 | 0.00 | 0.00 | 77 | 1009.8 |
| 20260904090923 | 72 | 225 | 6.0 | 13.0 | 0.00 | 0.00 | 0.00 | 77 | 1009.8 |
| 20260904090715 | 72 | 248 | 7.0 | 13.0 | 0.00 | 0.00 | 0.00 | 77 | 1009.6 |
| 20260904090530 | 72 | 202 | 7.0 | 13.0 | 0.00 | 0.00 | 0.00 | 77 | 1009.7 |
| 20260904090029 | 72 | 158 | 8.0 | 13.0 | 0.00 | 0.00 | 0.00 | 77 | 1009.6 |
| 20260904084232 | 71 | 225 | 8.0 | 13.0 | 0.00 | 0.00 | 0.00 | 77 | 1010.1 |
| 20260904084150 | 71 | 225 | 8.0 | 12.0 | 0.00 | 0.00 | 0.00 | 77 | 1010.1 |
| 20260904084008 | 71 | 270 | 8.0 | 12.0 | 0.00 | 0.00 | 0.00 | 78 | 1010.1 |
| 20260904083815 | 71 | 225 | 7.0 | 12.0 | 0.00 | 0.00 | 0.00 | 78 | 1010.1 |
| 20260904083630 | 71 | 248 | 7.0 | 11.0 | 0.00 | 0.00 | 0.00 | 78 | 1010.2 |
| 20260904083455 | 71 | 202 | 7.0 | 11.0 | 0.00 | 0.00 | 0.00 | 78 | 1010.2 |
| 20260904083255 | 71 | 225 | 7.0 | 11.0 | 0.00 | 0.00 | 0.00 | 77 | 1010.3 |
| 20260904083055 | 71 | 270 | 7.0 | 11.0 | 0.00 | 0.00 | 0.00 | 78 | 1010.3 |
| 20260904082909 | 71 | 248 | 7.0 | 11.0 | 0.00 | 0.00 | 0.00 | 78 | 1010.5 |
| 20260904082712 | 71 | 225 | 7.0 | 11.0 | 0.00 | 0.00 | 0.00 | 78 | 1010.4 |
| 20260904082525 | 71 | 202 | 7.0 | 11.0 | 0.00 | 0.00 | 0.00 | 77 | 1010.5 |
| 20260904082334 | 71 | 270 | 7.0 | 11.0 | 0.00 | 0.00 | 0.00 | 78 | 1010.3 |
| 20260904082150 | 71 | 248 | 7.0 | 13.0 | 0.00 | 0.00 | 0.00 | 78 | 1010.3 |
| 20260904081950 | 71 | 225 | 7.0 | 13.0 | 0.00 | 0.00 | 0.00 | 78 | 1010.4 |
| 20260904081800 | 71 | 202 | 7.0 | 10.0 | 0.00 | 0.00 | 0.00 | 78 | 1010.4 |
| 20260904081612 | 71 | 180 | 7.0 | 12.0 | 0.00 | 0.00 | 0.00 | 79 | 1010.3 |
| 20260904081414 | 71 | 248 | 7.0 | 12.0 | 0.00 | 0.00 | 0.00 | 78 | 1010.3 |
| 20260904081235 | 71 | 225 | 7.0 | 12.0 | 0.00 | 0.00 | 0.00 | 79 | 1010.4 |
| 20260904081144 | 71 | 225 | 6.0 | 12.0 | 0.00 | 0.00 | 0.00 | 79 | 1010.4 |
| 20260904081050 | 71 | 248 | 6.0 | 11.0 | 0.00 | 0.00 | 0.00 | 79 | 1010.3 |
| 20260904080908 | 70 | 270 | 6.0 | 11.0 | 0.00 | 0.00 | 0.00 | 79 | 1010.3 |
| 20260904080719 | 70 | 202 | 7.0 | 11.0 | 0.00 | 0.00 | 0.00 | 79 | 1010.5 |
| 20260904080528 | 70 | 248 | 7.0 | 11.0 | 0.00 | 0.00 | 0.00 | 79 | 1010.4 |
| 20260904080345 | 70 | 202 | 7.0 | 13.0 | 0.00 | 0.00 | 0.00 | 79 | 1010.4 |
| 20260904080209 | 70 | 248 | 7.0 | 13.0 | 0.00 | 0.00 | 0.00 | 79 | 1010.4 |
| 20260904080030 | 70 | 225 | 7.0 | 13.0 | 0.00 | 0.00 | 0.00 | 79 | 1010.4 |
| 20260904075852 | 70 | 225 | 6.0 | 10.0 | 0.00 | 0.00 | 0.00 | 79 | 1010.5 |
| 20260904075655 | 70 | 0 | 6.0 | 11.0 | 0.00 | 0.00 | 0.00 | 80 | 1010.5 |
| 20260904075628 | 70 | 202 | 6.0 | 11.0 | 0.00 | 0.00 | 0.00 | 79 | 1010.5 |
| 20260904075515 | 70 | 292 | 6.0 | 11.0 | 0.00 | 0.00 | 0.00 | 80 | 1010.6 |
| 20260904075319 | 70 | 248 | 6.0 | 11.0 | 0.00 | 0.00 | 0.00 | 80 | 1010.7 |
| 20260904075135 | 70 | 225 | 7.0 | 11.0 | 0.00 | 0.00 | 0.00 | 80 | 1010.7 |
| 20260904074940 | 70 | 202 | 7.0 | 11.0 | 0.00 | 0.00 | 0.00 | 80 | 1010.5 |
| 20260904074759 | 70 | 225 | 7.0 | 11.0 | 0.00 | 0.00 | 0.00 | 80 | 1010.5 |
| 20260904074610 | 70 | 225 | 7.0 | 13.0 | 0.00 | 0.00 | 0.00 | 80 | 1010.5 |
| 20260904074419 | 70 | 202 | 7.0 | 16.0 | 0.00 | 0.00 | 0.00 | 79 | 1010.6 |
| 20260904074239 | 70 | 225 | 7.0 | 16.0 | 0.00 | 0.00 | 0.00 | 80 | 1010.6 |
| 20260904074055 | 70 | 202 | 7.0 | 16.0 | 0.00 | 0.00 | 0.00 | 80 | 1010.6 |
| 20260904074023 | 70 | 248 | 7.0 | 11.0 | 0.00 | 0.00 | 0.00 | 80 | 1010.5 |
| 20260904073855 | 70 | 225 | 6.0 | 11.0 | 0.00 | 0.00 | 0.00 | 80 | 1010.6 |
| 20260904073705 | 69 | 225 | 6.0 | 11.0 | 0.00 | 0.00 | 0.00 | 80 | 1010.8 |
| 20260904073525 | 69 | 248 | 7.0 | 11.0 | 0.00 | 0.00 | 0.00 | 80 | 1010.8 |
| 20260904073325 | 69 | 180 | 7.0 | 11.0 | 0.00 | 0.00 | 0.00 | 80 | 1010.9 |
| 20260904073130 | 69 | 202 | 7.0 | 11.0 | 0.00 | 0.00 | 0.00 | 80 | 1010.9 |
| 20260904072939 | 69 | 248 | 7.0 | 11.0 | 0.00 | 0.00 | 0.00 | 80 | 1011.0 |
| 20260904072744 | 69 | 248 | 7.0 | 12.0 | 0.00 | 0.00 | 0.00 | 81 | 1011.0 |
| 20260904072555 | 69 | 248 | 7.0 | 12.0 | 0.00 | 0.00 | 0.00 | 81 | 1011.0 |
| 20260904072410 | 69 | 248 | 7.0 | 12.0 | 0.00 | 0.00 | 0.00 | 80 | 1011.0 |
| 20260904072230 | 69 | 180 | 7.0 | 11.0 | 0.00 | 0.00 | 0.00 | 80 | 1011.1 |
| 20260904072044 | 69 | 270 | 6.0 | 11.0 | 0.00 | 0.00 | 0.00 | 81 | 1011.1 |
| 20260904071859 | 69 | 248 | 6.0 | 11.0 | 0.00 | 0.00 | 0.00 | 81 | 1011.2 |
| 20260904071719 | 69 | 248 | 6.0 | 11.0 | 0.00 | 0.00 | 0.00 | 81 | 1011.3 |
| 20260904071523 | 69 | 225 | 7.0 | 11.0 | 0.00 | 0.00 | 0.00 | 80 | 1011.2 |
| 20260904071335 | 69 | 202 | 6.0 | 11.0 | 0.00 | 0.00 | 0.00 | 81 | 1011.3 |
| 20260904071155 | 69 | 225 | 6.0 | 11.0 | 0.00 | 0.00 | 0.00 | 81 | 1011.4 |
| 20260904070959 | 69 | 248 | 7.0 | 11.0 | 0.00 | 0.00 | 0.00 | 80 | 1011.3 |
| 20260904070800 | 68 | 248 | 6.0 | 10.0 | 0.00 | 0.00 | 0.00 | 81 | 1011.3 |
| 20260904070604 | 68 | 225 | 6.0 | 11.0 | 0.00 | 0.00 | 0.00 | 81 | 1011.4 |
| 20260904070535 | 68 | 202 | 6.0 | 11.0 | 0.00 | 0.00 | 0.00 | 81 | 1011.3 |
| 20260904070425 | 68 | 202 | 6.0 | 11.0 | 0.00 | 0.00 | 0.00 | 81 | 1011.3 |
| 20260904070228 | 68 | 202 | 6.0 | 11.0 | 0.00 | 0.00 | 0.00 | 81 | 1011.4 |
| 20260904070035 | 68 | 202 | 6.0 | 11.0 | 0.00 | 0.00 | 0.00 | 81 | 1011.5 |
| 20260904065845 | 68 | 202 | 6.0 | 10.0 | 0.00 | 0.00 | 0.00 | 81 | 1011.4 |
| 20260904065648 | 68 | 248 | 6.0 | 14.0 | 0.00 | 0.00 | 0.00 | 81 | 1011.3 |
| 20260904065450 | 68 | 225 | 6.0 | 14.0 | 0.00 | 0.00 | 0.00 | 82 | 1011.4 |
| 20260904065307 | 68 | 248 | 5.0 | 8.0 | 0.00 | 0.00 | 0.00 | 82 | 1011.4 |
| 20260904065115 | 68 | 202 | 6.0 | 8.0 | 0.00 | 0.00 | 0.00 | 82 | 1011.4 |
| 20260904064919 | 68 | 225 | 6.0 | 8.0 | 0.00 | 0.00 | 0.00 | 81 | 1011.5 |
| 20260904064739 | 68 | 202 | 6.0 | 9.0 | 0.00 | 0.00 | 0.00 | 82 | 1011.5 |
| 20260904064716 | 68 | 158 | 6.0 | 9.0 | 0.00 | 0.00 | 0.00 | 82 | 1011.5 |
| 20260904064555 | 68 | 270 | 6.0 | 9.0 | 0.00 | 0.00 | 0.00 | 82 | 1011.6 |
| 20260904064409 | 68 | 202 | 6.0 | 10.0 | 0.00 | 0.00 | 0.00 | 82 | 1011.6 |
| 20260904064219 | 67 | 225 | 6.0 | 10.0 | 0.00 | 0.00 | 0.00 | 82 | 1011.6 |
| 20260904064034 | 67 | 248 | 6.0 | 10.0 | 0.00 | 0.00 | 0.00 | 82 | 1011.5 |
| 20260904063855 | 67 | 248 | 6.0 | 10.0 | 0.00 | 0.00 | 0.00 | 82 | 1011.7 |
| 20260904063715 | 67 | 225 | 6.0 | 10.0 | 0.00 | 0.00 | 0.00 | 82 | 1011.7 |
| 20260904063515 | 67 | 225 | 6.0 | 9.0 | 0.00 | 0.00 | 0.00 | 82 | 1011.7 |
| 20260904063325 | 67 | 248 | 6.0 | 9.0 | 0.00 | 0.00 | 0.00 | 82 | 1011.7 |
| 20260904063149 | 67 | 202 | 6.0 | 9.0 | 0.00 | 0.00 | 0.00 | 82 | 1011.7 |
| 20260904063012 | 67 | 225 | 6.0 | 9.0 | 0.00 | 0.00 | 0.00 | 83 | 1011.7 |
| 20260904062815 | 67 | 225 | 6.0 | 9.0 | 0.00 | 0.00 | 0.00 | 83 | 1011.8 |
| 20260904062625 | 67 | 270 | 6.0 | 9.0 | 0.00 | 0.00 | 0.00 | 83 | 1011.8 |
| 20260904062435 | 67 | 180 | 6.0 | 10.0 | 0.00 | 0.00 | 0.00 | 83 | 1011.9 |
| 20260904062239 | 67 | 202 | 6.0 | 10.0 | 0.00 | 0.00 | 0.00 | 83 | 1011.8 |
| 20260904062055 | 67 | 225 | 6.0 | 10.0 | 0.00 | 0.00 | 0.00 | 83 | 1011.9 |
| 20260904061905 | 67 | 248 | 6.0 | 9.0 | 0.00 | 0.00 | 0.00 | 83 | 1011.9 |
| 20260904061725 | 67 | 248 | 6.0 | 9.0 | 0.00 | 0.00 | 0.00 | 83 | 1011.9 |
| 20260904061646 | 67 | 248 | 6.0 | 9.0 | 0.00 | 0.00 | 0.00 | 83 | 1011.9 |
| 20260904061528 | 67 | 248 | 5.0 | 9.0 | 0.00 | 0.00 | 0.00 | 83 | 1011.9 |
| 20260904061330 | 66 | 248 | 5.0 | 7.0 | 0.00 | 0.00 | 0.00 | 84 | 1012.0 |
| 20260904061154 | 66 | 225 | 5.0 | 7.0 | 0.00 | 0.00 | 0.00 | 84 | 1012.1 |
| 20260904061010 | 66 | 225 | 5.0 | 7.0 | 0.00 | 0.00 | 0.00 | 84 | 1012.1 |
| 20260904060819 | 66 | 248 | 5.0 | 8.0 | 0.00 | 0.00 | 0.00 | 84 | 1012.1 |
| 20260904060625 | 66 | 270 | 5.0 | 8.0 | 0.00 | 0.00 | 0.00 | 84 | 1012.1 |
| 20260904060435 | 66 | 180 | 5.0 | 8.0 | 0.00 | 0.00 | 0.00 | 85 | 1012.1 |
| 20260904060239 | 66 | 225 | 5.0 | 8.0 | 0.00 | 0.00 | 0.00 | 84 | 1012.1 |
| 20260904060132 | 66 | 225 | 5.0 | 8.0 | 0.00 | 0.00 | 0.00 | 85 | 1012.1 |
| 20260904060057 | 66 | 225 | 5.0 | 8.0 | 0.00 | 0.00 | 0.00 | 85 | 1012.1 |
| 20260904055915 | 66 | 270 | 6.0 | 10.0 | 0.00 | 0.00 | 0.00 | 85 | 1012.1 |
| 20260904055735 | 66 | 202 | 6.0 | 10.0 | 0.00 | 0.00 | 0.00 | 84 | 1012.3 |
| 20260904055539 | 66 | 202 | 6.0 | 10.0 | 0.00 | 0.00 | 0.00 | 85 | 1012.2 |
| 20260904055359 | 66 | 248 | 5.0 | 9.0 | 0.00 | 0.00 | 0.00 | 85 | 1012.3 |
| 20260904055209 | 66 | 202 | 5.0 | 9.0 | 0.00 | 0.00 | 0.00 | 85 | 1012.3 |
| 20260904055019 | 66 | 248 | 5.0 | 9.0 | 0.00 | 0.00 | 0.00 | 85 | 1012.3 |
| 20260904054829 | 66 | 180 | 5.0 | 9.0 | 0.00 | 0.00 | 0.00 | 85 | 1012.2 |
| 20260904054630 | 66 | 202 | 5.0 | 9.0 | 0.00 | 0.00 | 0.00 | 85 | 1012.1 |
| 20260904054430 | 66 | 248 | 5.0 | 7.0 | 0.00 | 0.00 | 0.00 | 86 | 1012.2 |
| 20260904054241 | 66 | 248 | 5.0 | 8.0 | 0.00 | 0.00 | 0.00 | 86 | 1012.3 |
| 20260904054050 | 66 | 248 | 5.0 | 8.0 | 0.00 | 0.00 | 0.00 | 86 | 1012.4 |
| 20260904053908 | 66 | 270 | 4.0 | 8.0 | 0.00 | 0.00 | 0.00 | 86 | 1012.4 |
| 20260904053730 | 66 | 225 | 4.0 | 8.0 | 0.00 | 0.00 | 0.00 | 86 | 1012.5 |
| 20260904053539 | 65 | 202 | 4.0 | 5.0 | 0.00 | 0.00 | 0.00 | 86 | 1012.5 |
| 20260904053355 | 65 | 225 | 4.0 | 5.0 | 0.00 | 0.00 | 0.00 | 86 | 1012.6 |
| 20260904053205 | 65 | 292 | 4.0 | 6.0 | 0.00 | 0.00 | 0.00 | 86 | 1012.6 |
| 20260904053009 | 65 | 225 | 5.0 | 7.0 | 0.00 | 0.00 | 0.00 | 86 | 1012.6 |
| 20260904052810 | 65 | 225 | 4.0 | 7.0 | 0.00 | 0.00 | 0.00 | 86 | 1012.7 |
| 20260904052619 | 65 | 180 | 4.0 | 6.0 | 0.00 | 0.00 | 0.00 | 86 | 1012.7 |
| 20260904052457 | 65 | 202 | 4.0 | 6.0 | 0.00 | 0.00 | 0.00 | 86 | 1012.7 |
| 20260904052430 | 65 | 202 | 4.0 | 6.0 | 0.00 | 0.00 | 0.00 | 86 | 1012.7 |
| 20260904052247 | 65 | 225 | 4.0 | 8.0 | 0.00 | 0.00 | 0.00 | 87 | 1012.8 |
| 20260904052049 | 65 | 248 | 4.0 | 8.0 | 0.00 | 0.00 | 0.00 | 86 | 1012.8 |
| 20260904051850 | 65 | 202 | 4.0 | 8.0 | 0.00 | 0.00 | 0.00 | 86 | 1012.9 |
| 20260904051700 | 65 | 248 | 4.0 | 6.0 | 0.00 | 0.00 | 0.00 | 86 | 1012.9 |
| 20260904051510 | 65 | 248 | 4.0 | 6.0 | 0.00 | 0.00 | 0.00 | 87 | 1012.8 |
| 20260904051312 | 65 | 225 | 4.0 | 6.0 | 0.00 | 0.00 | 0.00 | 87 | 1012.9 |
| 20260904051120 | 65 | 135 | 4.0 | 6.0 | 0.00 | 0.00 | 0.00 | 87 | 1012.9 |
| 20260904050924 | 65 | 202 | 4.0 | 8.0 | 0.00 | 0.00 | 0.00 | 87 | 1013.0 |
| 20260904050737 | 65 | 270 | 4.0 | 8.0 | 0.00 | 0.00 | 0.00 | 87 | 1013.0 |
| 20260904050631 | 65 | 202 | 4.0 | 8.0 | 0.00 | 0.00 | 0.00 | 87 | 1012.9 |
| 20260904050539 | 65 | 248 | 4.0 | 6.0 | 0.00 | 0.00 | 0.00 | 87 | 1012.8 |
| 20260904050400 | 65 | 225 | 4.0 | 6.0 | 0.00 | 0.00 | 0.00 | 87 | 1012.9 |
| 20260904050200 | 65 | 225 | 4.0 | 6.0 | 0.00 | 0.00 | 0.00 | 87 | 1013.0 |
| 20260904050020 | 65 | 202 | 4.0 | 6.0 | 0.00 | 0.00 | 0.00 | 87 | 1012.9 |
| 20260904045821 | 65 | 248 | 3.0 | 6.0 | 0.00 | 0.00 | 0.00 | 87 | 1013.0 |
| 20260904045630 | 65 | 248 | 4.0 | 6.0 | 0.00 | 0.00 | 0.00 | 87 | 1013.0 |
| 20260904045440 | 65 | 248 | 4.0 | 6.0 | 0.00 | 0.00 | 0.00 | 87 | 1013.0 |
| 20260904045239 | 65 | 292 | 4.0 | 6.0 | 0.00 | 0.00 | 0.00 | 87 | 1012.9 |
| 20260904045050 | 65 | 248 | 3.0 | 5.0 | 0.00 | 0.00 | 0.00 | 87 | 1012.9 |
| 20260904044937 | 65 | 248 | 4.0 | 5.0 | 0.00 | 0.00 | 0.00 | 87 | 1012.9 |
| 20260904044900 | 65 | 202 | 4.0 | 5.0 | 0.00 | 0.00 | 0.00 | 87 | 1012.8 |
| 20260904044708 | 65 | 22 | 4.0 | 5.0 | 0.00 | 0.00 | 0.00 | 87 | 1012.9 |
| 20260904044530 | 65 | 248 | 4.0 | 6.0 | 0.00 | 0.00 | 0.00 | 87 | 1012.9 |
| 20260904044344 | 65 | 248 | 4.0 | 8.0 | 0.00 | 0.00 | 0.00 | 87 | 1013.0 |
| 20260904044200 | 65 | 315 | 4.0 | 8.0 | 0.00 | 0.00 | 0.00 | 87 | 1012.9 |
| 20260904044015 | 65 | 292 | 4.0 | 6.0 | 0.00 | 0.00 | 0.00 | 87 | 1012.9 |
| 20260904043824 | 65 | 225 | 5.0 | 6.0 | 0.00 | 0.00 | 0.00 | 86 | 1012.9 |
| 20260904043630 | 65 | 248 | 5.0 | 8.0 | 0.00 | 0.00 | 0.00 | 86 | 1013.0 |
| 20260904043450 | 65 | 248 | 5.0 | 8.0 | 0.00 | 0.00 | 0.00 | 86 | 1013.0 |
| 20260904043305 | 65 | 202 | 5.0 | 8.0 | 0.00 | 0.00 | 0.00 | 86 | 1013.0 |
| 20260904043117 | 65 | 248 | 4.0 | 6.0 | 0.00 | 0.00 | 0.00 | 86 | 1012.9 |
| 20260904042940 | 65 | 248 | 5.0 | 6.0 | 0.00 | 0.00 | 0.00 | 86 | 1013.0 |
| 20260904042740 | 65 | 248 | 5.0 | 7.0 | 0.00 | 0.00 | 0.00 | 86 | 1013.0 |
| 20260904042550 | 65 | 202 | 5.0 | 7.0 | 0.00 | 0.00 | 0.00 | 86 | 1013.1 |
| 20260904042410 | 65 | 202 | 4.0 | 7.0 | 0.00 | 0.00 | 0.00 | 86 | 1013.0 |
| 20260904042234 | 65 | 248 | 4.0 | 8.0 | 0.00 | 0.00 | 0.00 | 86 | 1013.1 |
| 20260904042045 | 65 | 225 | 5.0 | 8.0 | 0.00 | 0.00 | 0.00 | 85 | 1013.0 |
| 20260904041857 | 65 | 248 | 5.0 | 8.0 | 0.00 | 0.00 | 0.00 | 85 | 1013.0 |
| 20260904041720 | 65 | 202 | 5.0 | 8.0 | 0.00 | 0.00 | 0.00 | 85 | 1013.0 |
| 20260904041539 | 65 | 225 | 5.0 | 7.0 | 0.00 | 0.00 | 0.00 | 85 | 1013.0 |
| 20260904041422 | 65 | 248 | 5.0 | 7.0 | 0.00 | 0.00 | 0.00 | 85 | 1012.9 |
| 20260904041350 | 65 | 248 | 5.0 | 7.0 | 0.00 | 0.00 | 0.00 | 85 | 1013.0 |
| 20260904041155 | 65 | 135 | 5.0 | 7.0 | 0.00 | 0.00 | 0.00 | 85 | 1013.0 |
| 20260904041009 | 65 | 270 | 5.0 | 7.0 | 0.00 | 0.00 | 0.00 | 85 | 1013.0 |
| 20260904040827 | 65 | 248 | 5.0 | 6.0 | 0.00 | 0.00 | 0.00 | 85 | 1013.1 |
| 20260904040644 | 65 | 202 | 5.0 | 6.0 | 0.00 | 0.00 | 0.00 | 85 | 1013.0 |
| 20260904040450 | 65 | 202 | 4.0 | 6.0 | 0.00 | 0.00 | 0.00 | 85 | 1013.1 |
| 20260904040255 | 65 | 202 | 4.0 | 6.0 | 0.00 | 0.00 | 0.00 | 85 | 1013.2 |
| 20260904040104 | 65 | 248 | 5.0 | 6.0 | 0.00 | 0.00 | 0.00 | 85 | 1013.2 |
| 20260904035910 | 65 | 202 | 4.0 | 6.0 | 0.00 | 0.00 | 0.00 | 85 | 1013.3 |
| 20260904035730 | 65 | 248 | 4.0 | 6.0 | 0.00 | 0.00 | 0.00 | 85 | 1013.3 |
| 20260904035542 | 65 | 248 | 4.0 | 6.0 | 0.00 | 0.00 | 0.00 | 85 | 1013.4 |
| 20260904035400 | 65 | 248 | 3.0 | 5.0 | 0.00 | 0.00 | 0.00 | 85 | 1013.4 |
| 20260904035220 | 65 | 248 | 3.0 | 5.0 | 0.00 | 0.00 | 0.00 | 85 | 1013.4 |
| 20260904035019 | 65 | 248 | 3.0 | 5.0 | 0.00 | 0.00 | 0.00 | 85 | 1013.4 |
| 20260904034835 | 65 | 248 | 3.0 | 5.0 | 0.00 | 0.00 | 0.00 | 85 | 1013.5 |
| 20260904034655 | 65 | 248 | 3.0 | 5.0 | 0.00 | 0.00 | 0.00 | 85 | 1013.5 |
| 20260904034455 | 65 | 202 | 3.0 | 5.0 | 0.00 | 0.00 | 0.00 | 85 | 1013.5 |
| 20260904034300 | 65 | 202 | 3.0 | 5.0 | 0.00 | 0.00 | 0.00 | 85 | 1013.6 |
| 20260904034104 | 65 | 202 | 3.0 | 5.0 | 0.00 | 0.00 | 0.00 | 84 | 1013.7 |
| 20260904034011 | 65 | 158 | 3.0 | 5.0 | 0.00 | 0.00 | 0.00 | 84 | 1013.7 |
| 20260904033920 | 65 | 248 | 3.0 | 5.0 | 0.00 | 0.00 | 0.00 | 84 | 1013.6 |
| 20260904033725 | 65 | 248 | 3.0 | 5.0 | 0.00 | 0.00 | 0.00 | 84 | 1013.7 |
| 20260904033529 | 65 | 248 | 4.0 | 5.0 | 0.00 | 0.00 | 0.00 | 84 | 1013.8 |
| 20260904033340 | 65 | 248 | 3.0 | 5.0 | 0.00 | 0.00 | 0.00 | 84 | 1013.9 |
| 20260904033200 | 65 | 248 | 3.0 | 7.0 | 0.00 | 0.00 | 0.00 | 84 | 1013.9 |
| 20260904033015 | 65 | 248 | 3.0 | 7.0 | 0.00 | 0.00 | 0.00 | 84 | 1013.8 |
| 20260904032815 | 65 | 225 | 3.0 | 5.0 | 0.00 | 0.00 | 0.00 | 84 | 1013.9 |
| 20260904032635 | 65 | 225 | 3.0 | 5.0 | 0.00 | 0.00 | 0.00 | 84 | 1013.9 |
| 20260904032450 | 65 | 225 | 3.0 | 5.0 | 0.00 | 0.00 | 0.00 | 84 | 1013.9 |
| 20260904032407 | 65 | 225 | 3.0 | 5.0 | 0.00 | 0.00 | 0.00 | 83 | 1014.0 |
| 20260904032256 | 65 | 225 | 3.0 | 5.0 | 0.00 | 0.00 | 0.00 | 84 | 1014.0 |
| 20260904032103 | 65 | 270 | 3.0 | 5.0 | 0.00 | 0.00 | 0.00 | 84 | 1014.0 |
| 20260904031911 | 65 | 225 | 3.0 | 5.0 | 0.00 | 0.00 | 0.00 | 84 | 1014.0 |
| 20260904031735 | 65 | 248 | 3.0 | 5.0 | 0.00 | 0.00 | 0.00 | 83 | 1014.0 |
| 20260904031539 | 65 | 270 | 3.0 | 5.0 | 0.00 | 0.00 | 0.00 | 83 | 1013.9 |
| 20260904031400 | 65 | 248 | 3.0 | 5.0 | 0.00 | 0.00 | 0.00 | 83 | 1013.9 |
| 20260904031215 | 65 | 225 | 4.0 | 5.0 | 0.00 | 0.00 | 0.00 | 83 | 1014.0 |
| 20260904031039 | 65 | 248 | 4.0 | 5.0 | 0.00 | 0.00 | 0.00 | 83 | 1014.0 |
| 20260904030900 | 65 | 292 | 4.0 | 5.0 | 0.00 | 0.00 | 0.00 | 83 | 1014.1 |
| 20260904030723 | 65 | 248 | 4.0 | 6.0 | 0.00 | 0.00 | 0.00 | 83 | 1014.1 |
| 20260904030532 | 65 | 248 | 4.0 | 8.0 | 0.00 | 0.00 | 0.00 | 83 | 1014.0 |
| 20260904030340 | 65 | 225 | 4.0 | 8.0 | 0.00 | 0.00 | 0.00 | 83 | 1014.1 |
| 20260904030155 | 65 | 248 | 4.0 | 6.0 | 0.00 | 0.00 | 0.00 | 83 | 1014.1 |
| 20260904030015 | 65 | 225 | 4.0 | 6.0 | 0.00 | 0.00 | 0.00 | 83 | 1014.1 |
| 20260904025820 | 65 | 225 | 4.0 | 6.0 | 0.00 | 0.00 | 0.00 | 83 | 1014.2 |
| 20260904025635 | 65 | 225 | 4.0 | 6.0 | 0.00 | 0.00 | 0.00 | 83 | 1014.2 |
| 20260904025455 | 65 | 225 | 4.0 | 6.0 | 0.00 | 0.00 | 0.00 | 83 | 1014.1 |
| 20260904025306 | 65 | 202 | 4.0 | 5.0 | 0.00 | 0.00 | 0.00 | 83 | 1014.1 |
| 20260904025120 | 65 | 248 | 4.0 | 5.0 | 0.00 | 0.00 | 0.00 | 83 | 1014.0 |
| 20260904024930 | 65 | 225 | 4.0 | 5.0 | 0.00 | 0.00 | 0.00 | 83 | 1014.1 |
| 20260904024852 | 65 | 248 | 4.0 | 5.0 | 0.00 | 0.00 | 0.00 | 83 | 1014.1 |
| 20260904024744 | 65 | 225 | 4.0 | 5.0 | 0.00 | 0.00 | 0.00 | 83 | 1014.1 |
| 20260904024545 | 65 | 225 | 3.0 | 5.0 | 0.00 | 0.00 | 0.00 | 83 | 1014.2 |
| 20260904024345 | 65 | 225 | 3.0 | 5.0 | 0.00 | 0.00 | 0.00 | 83 | 1014.2 |
| 20260904024154 | 65 | 248 | 3.0 | 5.0 | 0.00 | 0.00 | 0.00 | 83 | 1014.2 |
| 20260904024004 | 65 | 248 | 3.0 | 5.0 | 0.00 | 0.00 | 0.00 | 83 | 1014.2 |
| 20260904023815 | 65 | 292 | 3.0 | 5.0 | 0.00 | 0.00 | 0.00 | 83 | 1014.2 |
| 20260904023635 | 65 | 225 | 3.0 | 5.0 | 0.00 | 0.00 | 0.00 | 83 | 1014.2 |
| 20260904023500 | 65 | 270 | 4.0 | 5.0 | 0.00 | 0.00 | 0.00 | 83 | 1014.2 |
| 20260904023320 | 65 | 292 | 4.0 | 5.0 | 0.00 | 0.00 | 0.00 | 83 | 1014.2 |
| 20260904023117 | 65 | 248 | 4.0 | 5.0 | 0.00 | 0.00 | 0.00 | 83 | 1014.2 |
| 20260904022940 | 65 | 248 | 4.0 | 5.0 | 0.00 | 0.00 | 0.00 | 83 | 1014.2 |
| 20260904022800 | 65 | 225 | 4.0 | 5.0 | 0.00 | 0.00 | 0.00 | 83 | 1014.2 |
| 20260904022624 | 65 | 248 | 4.0 | 5.0 | 0.00 | 0.00 | 0.00 | 83 | 1014.3 |
| 20260904022435 | 65 | 270 | 4.0 | 5.0 | 0.00 | 0.00 | 0.00 | 83 | 1014.3 |
| 20260904022235 | 65 | 292 | 4.0 | 5.0 | 0.00 | 0.00 | 0.00 | 83 | 1014.2 |
| 20260904022038 | 65 | 248 | 4.0 | 5.0 | 0.00 | 0.00 | 0.00 | 83 | 1014.2 |
| 20260904021845 | 65 | 270 | 4.0 | 6.0 | 0.00 | 0.00 | 0.00 | 83 | 1014.0 |
| 20260904021650 | 65 | 225 | 4.0 | 7.0 | 0.00 | 0.00 | 0.00 | 83 | 1014.0 |
| 20260904021529 | 65 | 202 | 4.0 | 7.0 | 0.00 | 0.00 | 0.00 | 83 | 1014.0 |
| 20260904021504 | 65 | 202 | 4.0 | 7.0 | 0.00 | 0.00 | 0.00 | 83 | 1014.0 |
| 20260904021315 | 65 | 202 | 4.0 | 6.0 | 0.00 | 0.00 | 0.00 | 83 | 1014.0 |
| 20260904021115 | 65 | 225 | 4.0 | 6.0 | 0.00 | 0.00 | 0.00 | 83 | 1014.1 |
| 20260904020920 | 65 | 180 | 4.0 | 6.0 | 0.00 | 0.00 | 0.00 | 83 | 1014.1 |
| 20260904020735 | 65 | 225 | 4.0 | 8.0 | 0.00 | 0.00 | 0.00 | 83 | 1014.1 |
| 20260904020554 | 65 | 292 | 4.0 | 8.0 | 0.00 | 0.00 | 0.00 | 83 | 1014.2 |
| 20260904020405 | 65 | 248 | 4.0 | 8.0 | 0.00 | 0.00 | 0.00 | 83 | 1014.2 |
| 20260904020220 | 65 | 292 | 4.0 | 6.0 | 0.00 | 0.00 | 0.00 | 83 | 1014.2 |
| 20260904020024 | 65 | 292 | 4.0 | 6.0 | 0.00 | 0.00 | 0.00 | 83 | 1014.3 |
| 20260904015846 | 65 | 292 | 4.0 | 6.0 | 0.00 | 0.00 | 0.00 | 84 | 1014.3 |
| 20260904015757 | 65 | 248 | 5.0 | 6.0 | 0.00 | 0.00 | 0.00 | 84 | 1014.4 |
| 20260904015649 | 65 | 248 | 5.0 | 6.0 | 0.00 | 0.00 | 0.00 | 84 | 1014.4 |
| 20260904015510 | 65 | 270 | 5.0 | 6.0 | 0.00 | 0.00 | 0.00 | 83 | 1014.4 |
| 20260904015330 | 65 | 270 | 5.0 | 8.0 | 0.00 | 0.00 | 0.00 | 84 | 1014.6 |
| 20260904015135 | 65 | 248 | 5.0 | 8.0 | 0.00 | 0.00 | 0.00 | 84 | 1014.4 |
| 20260904014950 | 65 | 270 | 5.0 | 6.0 | 0.00 | 0.00 | 0.00 | 84 | 1014.4 |
| 20260904014755 | 65 | 225 | 5.0 | 7.0 | 0.00 | 0.00 | 0.00 | 84 | 1014.5 |
| 20260904014615 | 65 | 248 | 5.0 | 7.0 | 0.00 | 0.00 | 0.00 | 84 | 1014.4 |
| 20260904014430 | 65 | 202 | 5.0 | 7.0 | 0.00 | 0.00 | 0.00 | 84 | 1014.5 |
| 20260904014240 | 65 | 248 | 5.0 | 8.0 | 0.00 | 0.00 | 0.00 | 85 | 1014.5 |
| 20260904014130 | 65 | 202 | 5.0 | 8.0 | 0.00 | 0.00 | 0.00 | 85 | 1014.6 |
| 20260904014040 | 65 | 248 | 5.0 | 8.0 | 0.00 | 0.00 | 0.00 | 85 | 1014.5 |
| 20260904013913 | 65 | 248 | 6.0 | 8.0 | 0.00 | 0.00 | 0.00 | 85 | 1014.7 |
| 20260904013710 | 65 | 270 | 5.0 | 8.0 | 0.00 | 0.00 | 0.00 | 85 | 1014.5 |
| 20260904013520 | 65 | 270 | 5.0 | 8.0 | 0.00 | 0.00 | 0.00 | 85 | 1014.5 |
| 20260904013341 | 65 | 270 | 5.0 | 8.0 | 0.00 | 0.00 | 0.00 | 85 | 1014.5 |
| 20260904013212 | 65 | 270 | 5.0 | 8.0 | 0.00 | 0.00 | 0.00 | 85 | 1014.5 |
| 20260904012857 | 65 | 202 | 5.0 | 7.0 | 0.00 | 0.00 | 0.00 | 86 | 1014.6 |
| 20260904012704 | 65 | 202 | 5.0 | 7.0 | 0.00 | 0.00 | 0.00 | 86 | 1014.6 |
| 20260904012603 | 65 | 202 | 5.0 | 7.0 | 0.00 | 0.00 | 0.00 | 86 | 1014.6 |
| 20260904012454 | 65 | 248 | 5.0 | 7.0 | 0.00 | 0.00 | 0.00 | 86 | 1014.6 |
| 20260904012120 | 65 | 225 | 5.0 | 6.0 | 0.00 | 0.00 | 0.00 | 86 | 1014.5 |
| 20260904011930 | 65 | 270 | 5.0 | 7.0 | 0.00 | 0.00 | 0.00 | 86 | 1014.5 |
| 20260904011755 | 65 | 202 | 4.0 | 7.0 | 0.00 | 0.00 | 0.00 | 86 | 1014.5 |
| 20260904011627 | 65 | 202 | 4.0 | 8.0 | 0.00 | 0.00 | 0.00 | 86 | 1014.5 |
| 20260904011420 | 65 | 292 | 4.0 | 8.0 | 0.00 | 0.00 | 0.00 | 86 | 1014.6 |
| 20260904011230 | 65 | 202 | 4.0 | 8.0 | 0.00 | 0.00 | 0.00 | 86 | 1014.5 |
| 20260904011053 | 65 | 248 | 4.0 | 6.0 | 0.00 | 0.00 | 0.00 | 87 | 1014.6 |
| 20260904011035 | 65 | 270 | 4.0 | 6.0 | 0.00 | 0.00 | 0.00 | 87 | 1014.6 |
| 20260904010841 | 65 | 292 | 4.0 | 6.0 | 0.00 | 0.00 | 0.00 | 86 | 1014.5 |
| 20260904010645 | 65 | 292 | 5.0 | 6.0 | 0.00 | 0.00 | 0.00 | 86 | 1014.5 |
| 20260904010500 | 65 | 292 | 5.0 | 8.0 | 0.00 | 0.00 | 0.00 | 86 | 1014.6 |
| 20260904010310 | 65 | 225 | 5.0 | 8.0 | 0.00 | 0.00 | 0.00 | 86 | 1014.4 |
| 20260904010130 | 65 | 225 | 5.0 | 8.0 | 0.00 | 0.00 | 0.00 | 86 | 1014.5 |
| 20260904005944 | 65 | 315 | 5.0 | 7.0 | 0.00 | 0.00 | 0.00 | 86 | 1014.5 |
| 20260904005805 | 65 | 248 | 5.0 | 7.0 | 0.00 | 0.00 | 0.00 | 87 | 1014.5 |
| 20260904005628 | 65 | 248 | 5.0 | 6.0 | 0.00 | 0.00 | 0.00 | 87 | 1014.5 |
| 20260904005438 | 65 | 270 | 4.0 | 6.0 | 0.00 | 0.00 | 0.00 | 87 | 1014.5 |
| 20260904005248 | 65 | 248 | 4.0 | 6.0 | 0.00 | 0.00 | 0.00 | 87 | 1014.5 |
| 20260904005055 | 65 | 202 | 4.0 | 6.0 | 0.00 | 0.00 | 0.00 | 87 | 1014.4 |
| 20260904004855 | 65 | 248 | 4.0 | 6.0 | 0.00 | 0.00 | 0.00 | 87 | 1014.4 |
| 20260904004705 | 65 | 292 | 4.0 | 5.0 | 0.00 | 0.00 | 0.00 | 88 | 1014.4 |
| 20260904004520 | 65 | 225 | 4.0 | 5.0 | 0.00 | 0.00 | 0.00 | 88 | 1014.5 |
| 20260904004330 | 65 | 270 | 4.0 | 5.0 | 0.00 | 0.00 | 0.00 | 88 | 1014.5 |
| 20260904004150 | 65 | 225 | 4.0 | 5.0 | 0.00 | 0.00 | 0.00 | 87 | 1014.5 |
| 20260904004014 | 65 | 202 | 4.0 | 5.0 | 0.00 | 0.00 | 0.00 | 87 | 1014.5 |
| 20260904003828 | 65 | 225 | 4.0 | 5.0 | 0.00 | 0.00 | 0.00 | 87 | 1014.6 |